<- Previous Day | Today | Next Day ->

All Data for 23 September 2020

 

Time A - D Temp A - D Dew Point A - D Humidity A - D Pressure A - D Wind A - D Wind Dir Gust A - D Rain Rate A - D Rain Total
00:00 14.1 11.4 84 1003.9 4.5 S 6.9 0.0 0.0
00:01 14.1 11.4 84 1003.8 4.5 SW 6.9 0.0 0.0
00:02 14.1 11.4 84 1003.8 4.5 W 6.9 0.0 0.0
00:03 14.1 11.4 84 1003.8 4.5 W 6.9 0.0 0.0
00:04 14.1 11.4 84 1003.8 6.0 SW 6.9 0.0 0.0
00:05 14.1 11.4 84 1003.9 6.9 SW 6.9 0.0 0.0
00:06 14.0 11.3 84 1003.8 4.5 SW 6.9 0.0 0.0
00:07 14.0 11.3 84 1003.9 4.5 SW 6.9 0.0 0.0
00:08 14.0 11.3 84 1003.9 5.4 SW 6.9 0.0 0.0
00:09 14.0 11.3 84 1003.8 5.4 SW 6.9 0.0 0.0
00:10 14.0 11.3 84 1004.2 5.4 SW 6.9 0.0 0.0
00:12 14.0 11.3 84 1004.0 5.4 SW 6.9 0.0 0.0
00:13 13.9 11.2 84 1004.1 6.0 SW 6.9 0.0 0.0
00:14 13.9 11.2 84 1004.1 5.4 SW 6.9 0.0 0.0
00:15 13.9 11.2 84 1004.0 4.5 SW 6.0 0.0 0.0
00:16 13.9 11.2 84 1003.7 5.4 SW 6.0 0.0 0.0
00:17 13.9 11.2 84 1004.0 4.5 W 6.0 0.0 0.0
00:18 13.9 11.2 84 1004.1 4.5 SW 6.0 0.0 0.0
00:19 13.9 11.2 84 1003.9 4.5 SW 6.0 0.0 0.0
00:20 13.9 11.2 84 1004.0 3.1 S 6.0 0.0 0.0
00:21 13.9 11.2 84 1003.9 3.8 SW 6.0 0.0 0.0
00:22 13.9 11.2 84 1003.7 3.8 S 6.0 0.0 0.0
00:23 13.8 11.1 84 1003.8 3.8 S 6.0 0.0 0.0
00:24 13.8 11.1 84 1003.7 4.5 SW 5.4 0.0 0.0
00:26 13.8 11.1 84 1003.8 3.1 SW 5.4 0.0 0.0
00:27 13.8 11.1 84 1003.8 3.1 SW 5.4 0.0 0.0
00:28 13.8 11.1 84 1003.6 3.8 S 5.4 0.0 0.0
00:29 13.8 11.1 84 1003.8 4.5 S 5.4 0.0 0.0
00:30 13.8 11.1 84 1003.7 4.5 SW 5.4 0.0 0.0
00:31 13.8 11.1 84 1003.7 4.5 SW 5.4 0.0 0.0
00:32 13.8 11.1 84 1003.7 5.4 SW 5.4 0.0 0.0
00:33 13.8 11.1 84 1003.7 4.5 SW 5.4 0.0 0.0
00:34 13.8 11.1 84 1003.4 4.5 SW 5.4 0.0 0.0
00:35 13.8 11.1 84 1003.8 3.8 SW 5.4 0.0 0.0
00:36 13.8 11.1 84 1003.8 4.5 S 5.4 0.0 0.0
00:37 13.7 11.1 84 1003.7 4.5 S 5.4 0.0 0.0
00:38 13.7 11.1 84 1003.6 4.5 SW 5.4 0.0 0.0
00:40 13.7 11.1 84 1003.8 5.4 S 5.4 0.0 0.0
00:41 13.7 11.1 84 1003.6 6.0 SW 6.0 0.0 0.0
00:42 13.7 11.1 84 1003.7 6.0 SW 6.0 0.0 0.0
00:43 13.7 11.1 84 1003.7 4.5 SW 6.0 0.0 0.0
00:44 13.7 11.1 84 1003.8 4.5 SW 6.0 0.0 0.0
00:45 13.7 11.1 84 1003.9 6.0 SW 6.0 0.0 0.0
00:46 13.7 11.1 84 1003.9 6.0 SW 6.0 0.0 0.0
00:47 13.7 11.1 84 1003.7 5.4 SW 6.0 0.0 0.0
00:48 13.7 11.2 85 1003.5 5.4 SW 6.0 0.0 0.0
00:49 13.7 11.2 85 1003.8 5.4 SW 6.0 0.0 0.0
00:50 13.7 11.2 85 1003.7 3.8 S 6.0 0.0 0.0
00:51 13.7 11.2 85 1003.6 3.8 SW 6.0 0.0 0.0
00:52 13.7 11.2 85 1003.4 5.4 WSW 6.0 0.0 0.0
00:54 13.7 11.2 85 1003.5 5.4 SW 6.0 0.0 0.0
00:55 13.7 11.2 85 1003.7 3.8 WSW 6.0 0.0 0.0
00:56 13.7 11.2 85 1003.5 3.8 SW 5.4 0.0 0.0
00:57 13.7 11.2 85 1003.6 4.5 SW 5.4 0.0 0.0
00:58 13.7 11.2 85 1003.5 4.5 SW 5.4 0.0 0.0
00:59 13.7 11.2 85 1003.5 4.5 SW 5.4 0.0 0.0
01:00 13.7 11.2 85 1003.5 3.8 SW 5.4 0.0 0.0
01:01 13.7 11.2 85 1003.6 4.5 SW 5.4 0.0 0.0
01:02 13.7 11.2 85 1003.4 4.5 SW 5.4 0.0 0.0
01:03 13.7 11.2 85 1003.6 4.5 SW 5.4 0.0 0.0
01:04 13.7 11.2 85 1003.5 4.5 SW 5.4 0.0 0.0
01:05 13.7 11.2 85 1003.4 4.5 SW 5.4 0.0 0.0
01:06 13.7 11.2 85 1003.5 4.5 SW 4.5 0.0 0.0
01:08 13.8 11.3 85 1003.3 3.8 SW 4.5 0.0 0.0
01:09 13.8 11.3 85 1003.4 4.5 S 5.4 0.0 0.0
01:10 13.8 11.3 85 1003.4 4.5 S 5.4 0.0 0.0
01:11 13.8 11.3 85 1003.3 4.5 SW 5.4 0.0 0.0
01:12 13.8 11.3 85 1003.5 3.8 S 5.4 0.0 0.0
01:13 13.8 11.3 85 1003.4 4.5 SW 5.4 0.0 0.0
01:14 13.8 11.3 85 1003.4 4.5 SW 5.4 0.0 0.0
01:15 13.8 11.3 85 1003.4 4.5 S 5.4 0.0 0.0
01:16 13.8 11.3 85 1003.4 5.4 W 5.4 0.0 0.0
01:17 13.8 11.3 85 1003.3 5.4 SW 5.4 0.0 0.0
01:18 13.8 11.3 85 1003.3 4.5 SW 5.4 0.0 0.0
01:19 13.8 11.3 85 1003.4 6.0 W 6.0 0.0 0.0
01:20 13.8 11.3 85 1003.3 4.5 SW 6.0 0.0 0.0
01:22 13.8 11.3 85 1003.2 3.8 S 6.0 0.0 0.0
01:23 13.8 11.3 85 1003.5 5.4 SW 6.0 0.0 0.0
01:24 13.8 11.3 85 1003.4 6.0 SW 6.0 0.0 0.0
01:25 13.8 11.3 85 1003.4 3.8 SW 6.0 0.0 0.0
01:26 13.8 11.3 85 1003.3 3.1 SW 6.0 0.0 0.0
01:27 13.8 11.3 85 1003.4 3.1 SW 6.0 0.0 0.0
01:28 13.8 11.3 85 1003.4 3.8 SW 6.0 0.0 0.0
01:29 13.7 11.2 85 1003.2 6.0 SW 6.0 0.0 0.0
01:30 13.8 11.3 85 1003.4 6.0 SW 6.0 0.0 0.0
01:31 13.8 11.3 85 1003.3 4.5 S 6.0 0.0 0.0
01:32 13.8 11.3 85 1003.5 6.0 S 6.0 0.0 0.0
01:33 13.8 11.3 85 1003.4 5.4 S 6.0 0.0 0.0
01:34 13.8 11.3 85 1003.3 4.5 SW 6.0 0.0 0.0
01:36 13.8 11.3 85 1003.2 5.4 SW 6.0 0.0 0.0
01:37 13.9 11.4 85 1003.1 5.4 W 6.0 0.0 0.0
01:38 13.9 11.4 85 1003.3 4.5 SW 6.0 0.0 0.0
01:39 13.9 11.4 85 1003.2 4.5 SW 6.0 0.0 0.0
01:40 13.9 11.4 85 1003.4 3.8 SW 6.0 0.0 0.0
01:41 13.9 11.4 85 1003.4 5.4 S 6.0 0.0 0.0
01:42 13.9 11.4 85 1003.4 5.4 S 6.0 0.0 0.0
01:43 13.9 11.6 86 1003.3 6.0 SW 6.0 0.0 0.0
01:44 14.0 11.7 86 1003.2 4.5 SW 6.0 0.0 0.0
01:45 14.0 11.7 86 1003.3 5.4 W 6.0 0.0 0.0
01:46 14.0 11.7 86 1003.3 6.0 SW 6.0 0.0 0.0
01:47 14.0 11.7 86 1003.1 6.9 SSW 6.9 0.0 0.0
01:48 14.0 11.7 86 1003.1 4.5 SW 6.9 0.0 0.0
01:50 14.0 11.7 86 1003.2 4.5 S 6.9 0.0 0.0
01:51 14.0 11.7 86 1003.1 4.5 S 6.9 0.0 0.0
01:52 14.0 11.7 86 1003.1 6.9 W 6.9 0.0 0.0
01:53 14.0 11.7 86 1003.1 5.4 SW 6.9 0.0 0.0
01:54 14.0 11.7 86 1003.2 6.9 SW 6.9 0.0 0.0
01:55 14.0 11.7 86 1003.2 6.9 S 6.9 0.0 0.0
01:56 14.0 11.7 86 1003.2 6.0 SW 6.9 0.0 0.0
01:57 14.0 11.7 86 1003.1 6.0 SW 6.9 0.0 0.0
01:58 14.0 11.7 86 1003.2 5.4 W 6.9 0.0 0.0
01:59 14.1 11.8 86 1003.0 5.4 SW 6.9 0.0 0.0
02:00 14.1 11.8 86 1003.0 4.5 SW 6.9 0.0 0.0
02:01 14.1 11.8 86 1003.1 5.4 W 6.9 0.0 0.0
02:02 14.1 11.8 86 1003.0 6.0 SW 6.9 0.0 0.0
02:04 14.1 11.8 86 1003.0 5.4 SW 6.9 0.0 0.0
02:05 14.1 11.8 86 1003.0 5.4 SW 6.9 0.0 0.0
02:06 14.1 11.8 86 1003.0 5.4 SW 6.0 0.0 0.0
02:07 14.2 11.9 86 1003.0 6.9 SW 6.9 0.0 0.0
02:08 14.2 11.9 86 1002.9 6.9 W 6.9 0.0 0.0
02:09 14.2 11.9 86 1002.9 6.9 SW 6.9 0.0 0.0
02:10 14.2 11.9 86 1002.9 6.9 SW 6.9 0.0 0.0
02:11 14.2 11.9 86 1003.1 7.6 S 7.6 0.0 0.0
02:12 14.2 11.9 86 1003.0 7.6 SW 8.3 0.0 0.0
02:13 14.3 12.0 86 1003.0 10.7 SW 10.7 0.0 0.0
02:14 14.3 12.0 86 1002.8 10.7 SW 10.7 0.0 0.0
02:15 14.3 12.0 86 1002.8 9.2 S 10.7 0.0 0.0
02:16 14.3 12.0 86 1002.9 8.3 W 10.7 0.0 0.0
02:18 14.4 12.1 86 1002.7 11.4 W 11.4 0.0 0.0
02:19 14.4 12.1 86 1002.8 8.3 SW 11.4 0.0 0.0
02:20 14.4 12.1 86 1002.8 8.3 SW 11.4 0.0 0.0
02:21 14.4 12.1 86 1002.7 9.8 SW 11.4 0.0 0.0
02:22 14.4 12.1 86 1002.8 9.8 SW 11.4 0.0 0.0
02:23 14.4 12.1 86 1002.8 9.8 S 11.4 0.0 0.0
02:24 14.4 12.1 86 1002.8 8.3 SW 11.4 0.0 0.0
02:25 14.4 12.3 87 1002.7 9.2 S 11.4 0.0 0.0
02:26 14.4 12.3 87 1002.7 9.2 S 11.4 0.0 0.0
02:27 14.4 12.3 87 1003.0 9.2 SW 11.4 0.0 0.0
02:28 14.4 12.3 87 1002.6 9.2 SW 11.4 0.0 0.0
02:29 14.5 12.4 87 1002.8 6.9 SW 11.4 0.0 0.0
02:30 14.5 12.4 87 1002.8 6.9 SW 11.4 0.0 0.0
02:31 14.5 12.4 87 1002.7 10.7 SW 11.4 0.0 0.0
02:32 14.5 12.4 87 1002.9 6.9 SW 10.7 0.0 0.0
02:33 14.5 12.4 87 1002.8 6.9 SW 10.7 0.0 0.0
02:34 14.5 12.4 87 1002.9 5.4 SW 10.7 0.0 0.0
02:35 14.5 12.4 87 1002.7 7.6 SW 10.7 0.0 0.0
02:37 14.5 12.4 87 1002.9 7.6 SW 10.7 0.0 0.0
02:38 14.5 12.4 87 1002.7 6.0 WNW 10.7 0.0 0.0
02:39 14.5 12.4 87 1002.7 8.3 S 10.7 0.0 0.0
02:40 14.5 12.4 87 1002.7 9.2 SW 10.7 0.0 0.0
02:41 14.5 12.4 87 1002.7 7.6 S 9.2 0.0 0.0
02:42 14.5 12.4 87 1002.6 7.6 S 9.2 0.0 0.0
02:43 14.5 12.4 87 1002.6 7.6 S 9.2 0.0 0.0
02:44 14.5 12.4 87 1002.8 8.3 SW 9.2 0.0 0.0
02:45 14.4 12.3 87 1002.5 6.9 W 9.2 0.0 0.0
02:46 14.4 12.3 87 1002.5 6.9 S 9.2 0.0 0.0
02:47 14.4 12.3 87 1002.5 6.9 SW 9.2 0.0 0.0
02:48 14.4 12.3 87 1002.7 9.2 SW 9.2 0.0 0.0
02:49 14.4 12.3 87 1002.7 7.6 SW 9.2 0.0 0.0
02:51 14.4 12.3 87 1002.6 8.3 W 9.2 0.0 0.0
02:52 14.4 12.3 87 1002.6 6.0 SW 9.2 0.0 0.0
02:53 14.4 12.3 87 1002.6 6.9 W 9.2 0.0 0.0
02:54 14.4 12.3 87 1002.6 6.9 W 9.2 0.0 0.0
02:55 14.4 12.3 87 1002.5 6.9 W 9.2 0.0 0.0
02:56 14.4 12.3 87 1002.3 6.9 SW 9.2 0.0 0.0
02:57 14.4 12.3 87 1002.5 5.4 SW 9.2 0.0 0.0
02:58 14.4 12.3 87 1002.5 6.9 SW 9.2 0.0 0.0
02:59 14.4 12.3 87 1002.5 6.9 SW 8.3 0.0 0.0
03:00 14.4 12.3 87 1002.4 8.3 W 8.3 0.0 0.0
03:01 14.4 12.1 86 1002.4 9.2 SW 9.2 0.0 0.0
03:02 14.4 12.1 86 1002.4 9.2 SW 9.2 0.0 0.0
03:03 14.4 12.1 86 1002.3 9.2 SW 9.2 0.0 0.0
03:05 14.4 12.1 86 1002.4 9.2 SW 9.2 0.0 0.0
03:06 14.4 12.1 86 1002.2 5.4 SW 9.2 0.0 0.0
03:07 14.4 12.1 86 1002.3 4.5 S 9.2 0.0 0.0
03:08 14.4 12.1 86 1002.5 6.9 SW 9.2 0.0 0.0
03:09 14.4 12.1 86 1002.2 7.6 W 9.2 0.0 0.0
03:10 14.4 12.1 86 1002.3 7.6 W 9.2 0.0 0.0
03:11 14.4 12.1 86 1002.3 7.6 W 9.2 0.0 0.0
03:12 14.4 12.1 86 1002.5 7.6 W 9.2 0.0 0.0
03:13 14.4 12.1 86 1002.4 8.3 SW 9.2 0.0 0.0
03:14 14.4 12.1 86 1002.2 8.3 SW 9.2 0.0 0.0
03:15 14.4 12.1 86 1002.3 10.7 S 10.7 0.0 0.0
03:16 14.4 12.1 86 1002.2 9.8 SW 10.7 0.0 0.0
03:17 14.4 12.1 86 1002.2 7.6 SW 10.7 0.0 0.0
03:19 14.4 12.3 87 1002.0 11.4 SW 11.4 0.0 0.0
03:20 14.4 12.3 87 1002.4 11.4 SW 11.4 0.0 0.0
03:21 14.4 12.3 87 1002.2 10.7 SW 11.4 0.0 0.0
03:22 14.4 12.3 87 1002.2 10.7 S 11.4 0.0 0.0
03:23 14.4 12.3 87 1002.0 10.7 SW 11.4 0.0 0.0
03:24 14.4 12.3 87 1002.2 8.3 W 11.4 0.0 0.0
03:25 14.4 12.3 87 1002.4 6.9 SW 11.4 0.0 0.0
03:26 14.4 12.3 87 1002.3 8.3 W 11.4 0.0 0.0
03:27 14.5 12.4 87 1002.1 8.3 S 11.4 0.0 0.0
03:28 14.5 12.4 87 1002.3 8.3 SW 11.4 0.0 0.0
03:29 14.5 12.4 87 1002.1 10.7 SW 11.4 0.0 0.0
03:30 14.5 12.4 87 1002.1 10.7 SW 11.4 0.0 0.0
03:31 14.5 12.4 87 1002.2 10.7 S 10.7 0.0 0.0
03:33 14.5 12.4 87 1002.4 8.3 SW 10.7 0.0 0.0
03:34 14.5 12.4 87 1001.9 7.6 SSW 10.7 0.0 0.0
03:35 14.5 12.4 87 1002.0 6.0 SW 10.7 0.0 0.0
03:36 14.5 12.4 87 1002.3 6.9 SW 10.7 0.0 0.0
03:37 14.5 12.4 87 1002.1 10.7 SW 10.7 0.0 0.0
03:38 14.5 12.4 87 1002.2 10.7 SW 10.7 0.0 0.0
03:39 14.5 12.4 87 1002.2 10.7 SW 10.7 0.0 0.0
03:40 14.5 12.4 87 1001.9 10.7 SW 10.7 0.0 0.0
03:41 14.5 12.4 87 1002.2 12.1 W 12.1 0.0 0.0
03:42 14.5 12.4 87 1002.0 12.1 W 12.1 0.0 0.0
03:43 14.5 12.4 87 1002.1 9.2 S 12.1 0.0 0.0
03:44 14.5 12.4 87 1002.1 7.6 W 12.1 0.0 0.0
03:45 14.5 12.4 87 1002.1 15.2 W 15.2 0.0 0.0
03:47 14.5 12.4 87 1002.2 12.1 SW 15.2 0.0 0.0
03:48 14.4 12.1 86 1002.2 9.2 SW 15.2 0.0 0.0
03:49 14.4 12.1 86 1002.0 8.3 W 15.2 0.0 0.0
03:50 14.4 12.1 86 1002.0 8.3 S 15.2 0.0 0.0
03:51 14.3 12.0 86 1002.0 9.2 SW 15.2 0.0 0.0
03:52 14.3 12.0 86 1001.9 8.3 S 15.2 0.0 0.0
03:53 14.3 12.0 86 1001.9 8.3 W 15.2 0.0 0.0
03:54 14.2 11.9 86 1001.8 6.9 W 15.2 0.0 0.0
03:55 14.2 11.9 86 1002.0 9.2 SW 15.2 0.0 0.0
03:56 14.2 11.9 86 1001.9 9.2 W 13.6 0.0 0.0
03:57 14.2 11.9 86 1001.9 7.6 SW 12.1 0.0 0.0
03:58 14.2 11.9 86 1001.9 10.7 W 10.7 0.0 0.0
03:59 14.1 11.8 86 1001.8 8.3 W 10.7 0.0 0.0
04:01 14.1 11.8 86 1001.7 8.3 SW 10.7 0.0 0.0
04:02 14.1 11.8 86 1001.8 9.2 SW 10.7 0.0 0.0
04:03 14.1 11.8 86 1001.8 9.2 S 10.7 0.0 0.0
04:04 14.1 11.8 86 1001.7 7.6 W 10.7 0.0 0.0
04:05 14.1 11.8 86 1001.8 5.4 W 10.7 0.0 0.0
04:06 14.1 11.8 86 1001.8 4.5 W 10.7 0.0 0.0
04:07 14.1 11.8 86 1001.8 4.5 W 10.7 0.0 0.0
04:08 14.0 11.7 86 1001.8 7.6 SW 10.7 0.0 0.0
04:09 14.0 11.7 86 1001.7 7.6 W 9.8 0.0 0.0
04:10 14.0 11.7 86 1001.8 5.4 W 9.8 0.0 0.0
04:11 14.0 11.7 86 1001.7 8.3 SW 9.8 0.0 0.0
04:12 14.0 11.7 86 1001.8 4.5 WSW 9.2 0.0 0.0
04:13 14.0 11.7 86 1001.6 8.3 SW 9.2 0.0 0.0
04:14 14.0 11.7 86 1001.7 8.3 SW 8.3 0.0 0.0
04:16 14.0 11.7 86 1001.7 8.3 SW 8.3 0.0 0.0
04:17 14.0 11.7 86 1001.7 7.6 SW 8.3 0.0 0.0
04:18 14.0 11.7 86 1001.6 8.3 S 8.3 0.0 0.0
04:19 14.0 11.7 86 1001.6 6.0 S 8.3 0.0 0.0
04:20 14.0 11.7 86 1001.6 6.0 SW 8.3 0.0 0.0
04:21 14.0 11.7 86 1001.6 5.4 SW 8.3 0.0 0.0
04:22 14.1 11.8 86 1001.6 5.4 S 8.3 0.0 0.0
04:23 14.1 11.8 86 1001.6 6.9 SW 8.3 0.0 0.0
04:24 14.1 11.8 86 1001.5 6.0 WNW 8.3 0.0 0.0
04:25 14.1 11.8 86 1001.6 6.0 SW 8.3 0.0 0.0
04:26 14.1 11.8 86 1001.6 4.5 S 8.3 0.0 0.0
04:27 14.1 11.8 86 1001.3 4.5 SW 8.3 0.0 0.0
04:28 14.1 11.8 86 1001.6 6.9 SW 8.3 0.0 0.0
04:29 14.1 11.8 86 1001.5 6.0 SW 7.6 0.0 0.0
04:30 14.1 11.8 86 1001.4 6.0 SW 7.6 0.0 0.0
04:31 14.1 11.8 86 1001.8 6.0 W 7.6 0.0 0.0
04:32 14.2 11.9 86 1001.6 7.6 SW 7.6 0.0 0.0
04:33 14.2 11.9 86 1001.5 7.6 SW 7.6 0.0 0.0
04:34 14.2 11.9 86 1001.6 8.3 W 8.3 0.0 0.0
04:35 14.2 11.9 86 1001.6 8.3 W 8.3 0.0 0.0
04:36 14.2 11.9 86 1001.3 7.6 W 8.3 0.0 0.0
04:37 14.2 11.9 86 1001.6 6.9 SW 8.3 0.0 0.0
04:38 14.2 11.9 86 1001.3 9.2 SW 9.2 0.0 0.0
04:39 14.2 11.9 86 1001.5 6.9 W 9.2 0.0 0.0
04:40 14.2 11.9 86 1001.4 8.3 SW 9.2 0.0 0.0
04:41 14.1 11.8 86 1001.6 8.3 SW 9.2 0.0 0.0
04:42 14.1 11.8 86 1001.7 7.6 W 9.2 0.0 0.0
04:44 14.1 11.8 86 1001.5 9.2 W 9.2 0.0 0.0
04:45 14.1 11.8 86 1001.5 6.9 W 9.2 0.0 0.0
04:46 14.1 11.8 86 1001.3 6.9 SW 9.2 0.0 0.0
04:47 14.1 11.8 86 1001.5 9.2 SW 9.2 0.0 0.0
04:48 14.1 11.8 86 1001.5 9.8 SW 9.8 0.0 0.0
04:49 14.1 11.6 85 1001.2 9.8 W 9.8 0.0 0.0
04:50 14.1 11.6 85 1001.5 8.3 W 9.8 0.0 0.0
04:51 14.1 11.6 85 1001.5 10.7 S 10.7 0.0 0.0
04:52 14.0 11.5 85 1001.6 7.6 SW 10.7 0.0 0.0
04:53 14.0 11.5 85 1001.5 7.6 W 10.7 0.0 0.0
04:54 14.0 11.5 85 1001.5 7.6 SW 10.7 0.0 0.0
04:55 14.0 11.5 85 1001.5 6.9 SW 10.7 0.0 0.0
04:56 14.0 11.5 85 1001.6 7.6 W 10.7 0.0 0.0
04:58 14.0 11.5 85 1001.4 9.2 SW 10.7 0.0 0.0
04:59 14.0 11.5 85 1001.5 7.6 SW 10.7 0.0 0.0
05:00 14.0 11.5 85 1001.5 6.9 S 10.7 0.0 0.0
05:01 14.0 11.5 85 1001.6 6.9 S 10.7 0.0 0.0
05:02 14.0 11.5 85 1001.5 6.9 S 9.2 0.0 0.0
05:03 14.0 11.5 85 1001.5 6.9 S 9.2 0.0 0.0
05:04 14.0 11.5 85 1001.6 6.9 S 9.2 0.0 0.0
05:05 14.0 11.5 85 1001.4 6.9 S 9.2 0.0 0.0
05:06 14.0 11.5 85 1001.5 6.9 S 9.2 0.0 0.0
05:07 14.0 11.5 85 1001.5 6.9 S 9.2 0.0 0.0
05:08 14.0 11.5 85 1001.5 9.2 S 9.2 0.0 0.0
05:09 14.0 11.5 85 1001.4 9.2 W 9.2 0.0 0.0
05:10 14.0 11.5 85 1001.4 8.3 SW 9.2 0.0 0.0
05:12 14.0 11.5 85 1001.3 7.6 SW 9.8 0.0 0.0
05:13 14.0 11.5 85 1001.6 7.6 SW 9.8 0.0 0.0
05:14 14.0 11.5 85 1001.3 5.4 W 9.8 0.0 0.0
05:15 14.0 11.5 85 1001.4 5.4 SW 9.8 0.0 0.0
05:16 14.0 11.5 85 1001.3 5.4 SW 9.8 0.0 0.0
05:17 14.0 11.5 85 1001.3 5.4 SW 9.8 0.0 0.0
05:18 14.0 11.5 85 1001.3 5.4 SW 9.8 0.0 0.0
05:19 14.0 11.5 85 1001.3 5.4 SW 9.8 0.0 0.0
05:20 14.0 11.5 85 1001.3 5.4 S 9.8 0.0 0.0
05:21 14.0 11.5 85 1001.3 6.9 S 9.8 0.0 0.0
05:22 14.0 11.5 85 1001.2 5.4 SW 9.8 0.0 0.0
05:23 14.0 11.5 85 1001.3 5.4 S 9.8 0.0 0.0
05:24 14.0 11.5 85 1001.3 6.0 SW 7.6 0.0 0.0
05:26 14.0 11.5 85 1001.4 6.9 SW 6.9 0.0 0.0
05:27 14.0 11.5 85 1001.2 6.9 SW 6.9 0.0 0.0
05:28 14.0 11.5 85 1001.2 6.9 SW 6.9 0.0 0.0
05:29 14.1 11.8 86 1001.3 4.5 SW 6.9 0.0 0.0
05:30 14.1 11.8 86 1001.3 6.0 SW 6.9 0.0 0.0
05:31 14.1 11.8 86 1001.3 6.0 SW 6.9 0.0 0.0
05:32 14.1 11.8 86 1001.2 7.6 SW 7.6 0.0 0.0
05:33 14.1 11.8 86 1001.2 6.9 S 7.6 0.0 0.0
05:34 14.1 11.8 86 1001.2 6.9 SW 7.6 0.0 0.0
05:35 14.1 11.8 86 1001.1 6.9 SW 7.6 0.0 0.0
05:36 14.1 11.8 86 1001.0 5.4 SW 7.6 0.0 0.0
05:37 14.1 11.8 86 1001.2 6.0 W 7.6 0.0 0.0
05:38 14.1 11.8 86 1001.2 5.4 W 7.6 0.0 0.0
05:40 14.1 11.8 86 1001.1 7.6 W 8.3 0.0 0.0
05:41 14.1 11.8 86 1001.2 8.3 SW 8.3 0.0 0.0
05:42 14.1 11.8 86 1001.2 6.9 SW 8.3 0.0 0.0
05:43 14.1 11.8 86 1001.1 6.0 SW 8.3 0.0 0.0
05:44 14.1 11.8 86 1001.3 6.0 SW 8.3 0.0 0.0
05:45 14.1 11.8 86 1001.1 5.4 SW 8.3 0.0 0.0
05:46 14.1 11.8 86 1001.1 5.4 WSW 8.3 0.0 0.0
05:47 14.1 11.8 86 1001.1 4.5 WNW 8.3 0.0 0.0
05:48 14.2 11.9 86 1001.2 4.5 SW 8.3 0.0 0.0
05:49 14.2 11.9 86 1001.0 5.4 W 8.3 0.0 0.0
05:50 14.2 11.9 86 1001.2 5.4 S 8.3 0.0 0.0
05:51 14.2 11.9 86 1001.0 4.5 SW 8.3 0.0 0.0
05:52 14.2 11.9 86 1000.8 5.4 SW 8.3 0.0 0.0
05:54 14.2 11.9 86 1001.0 4.5 W 5.4 0.0 0.0
05:55 14.2 11.9 86 1001.1 3.8 SW 5.4 0.0 0.0
05:56 14.2 11.9 86 1001.1 9.8 W 9.8 0.0 0.0
05:57 14.2 11.9 86 1001.1 11.4 SW 11.4 0.0 0.0
05:58 14.2 11.9 86 1001.0 8.3 S 11.4 0.0 0.0
05:59 14.2 11.9 86 1001.0 8.3 S 11.4 0.0 0.0
06:00 14.2 11.9 86 1001.0 6.0 SW 11.4 0.0 0.0
06:01 14.2 11.9 86 1000.9 9.8 SW 11.4 0.0 0.0
06:02 14.2 11.9 86 1001.1 10.7 W 11.4 0.0 0.0
06:03 14.2 11.9 86 1001.0 9.8 SW 11.4 0.0 0.0
06:04 14.3 12.0 86 1000.8 6.9 SW 11.4 0.0 0.0
06:05 14.3 12.0 86 1000.8 6.0 S 11.4 0.0 0.0
06:06 14.3 12.0 86 1001.0 6.0 SW 11.4 0.0 0.0
06:08 14.3 12.0 86 1000.7 9.2 SW 11.4 0.0 0.0
06:09 14.3 12.0 86 1000.7 8.3 SW 11.4 0.0 0.0
06:10 14.3 12.0 86 1000.6 8.3 SW 11.4 0.0 0.0
06:11 14.3 12.0 86 1000.6 8.3 SW 10.7 0.0 0.0
06:12 14.3 12.0 86 1000.6 8.3 SW 9.8 0.0 0.0
06:13 14.3 12.0 86 1000.6 7.6 SW 9.2 0.0 0.0
06:14 14.3 12.0 86 1000.6 7.6 W 9.2 0.0 0.0
06:15 14.3 12.0 86 1000.4 7.6 SW 9.2 0.0 0.0
06:16 14.3 12.0 86 1000.6 7.6 SW 9.2 0.0 0.0
06:17 14.3 12.0 86 1000.7 10.7 SW 10.7 0.0 0.0
06:18 14.3 12.0 86 1000.7 8.3 SW 10.7 0.0 0.0
06:19 14.3 12.0 86 1000.7 8.3 SW 10.7 0.0 0.0
06:20 14.3 12.0 86 1000.7 7.6 SW 10.7 0.0 0.0
06:22 14.3 12.0 86 1000.8 10.7 SW 10.7 0.0 0.0
06:23 14.3 12.0 86 1000.8 9.2 SW 10.7 0.0 0.0
06:24 14.3 12.0 86 1000.9 9.2 SW 10.7 0.0 0.0
06:25 14.3 12.0 86 1000.7 9.2 SW 10.7 0.0 0.0
06:26 14.3 12.0 86 1000.6 9.2 WNW 10.7 0.0 0.0
06:27 14.3 12.0 86 1000.6 9.2 WNW 10.7 0.0 0.0
06:28 14.3 12.0 86 1000.8 9.8 W 10.7 0.0 0.0
06:29 14.3 12.0 86 1000.7 10.7 WNW 10.7 0.0 0.0
06:30 14.3 12.0 86 1000.5 10.7 W 10.7 0.0 0.0
06:31 14.3 12.0 86 1000.8 10.7 W 10.7 0.0 0.0
06:32 14.3 12.0 86 1001.0 9.2 W 10.7 0.0 0.0
06:33 14.3 12.0 86 1000.9 10.7 W 10.7 0.0 0.0
06:34 14.2 11.9 86 1001.1 9.2 W 10.7 0.0 0.0
06:36 14.1 11.8 86 1000.9 3.8 WNW 10.7 0.0 0.0
06:37 14.0 11.7 86 1000.9 7.6 SW 10.7 0.0 0.0
06:38 13.9 11.6 86 1001.1 7.6 E 10.7 0.0 0.0
06:39 13.9 11.6 86 1001.0 5.4 W 10.7 0.0 0.0
06:40 13.8 11.5 86 1000.9 5.4 W 10.7 0.0 0.0
06:41 13.8 11.5 86 1001.0 6.9 NE 10.7 0.0 0.0
06:42 13.8 11.5 86 1000.9 5.4 W 10.7 0.0 0.0
06:43 13.7 11.4 86 1000.9 6.9 E 10.7 0.0 0.0
06:44 13.6 11.3 86 1000.9 5.4 N 9.2 0.0 0.0
06:45 13.6 11.3 86 1000.9 5.4 N 9.2 0.0 0.0
06:46 13.6 11.3 86 1000.9 6.9 NE 7.6 0.0 0.0
06:47 13.6 11.1 85 1001.0 7.6 W 7.6 0.0 0.0
06:48 13.5 11.0 85 1000.8 6.9 N 7.6 0.0 0.0
06:50 13.4 10.9 85 1001.0 6.9 N 7.6 0.0 0.0
06:51 13.4 10.9 85 1001.0 6.0 N 7.6 0.0 0.0
06:52 13.4 10.9 85 1001.0 8.3 W 8.3 0.0 0.0
06:53 13.3 10.8 85 1000.9 9.2 NNW 9.2 0.0 0.0
06:54 13.3 10.8 85 1001.0 9.2 N 9.2 0.0 0.0
06:55 13.3 10.8 85 1001.0 9.2 N 9.2 0.0 0.0
06:56 13.2 10.7 85 1001.0 8.3 W 9.2 0.0 0.0
06:57 13.2 10.7 85 1000.8 6.0 N 9.2 0.0 0.0
06:58 13.2 10.7 85 1001.1 6.0 N 9.2 0.0 0.0
06:59 13.2 10.7 85 1001.0 6.0 N 9.2 0.0 0.0
07:00 13.2 10.7 85 1000.9 6.0 WNW 9.2 0.0 0.0
07:01 13.2 10.7 85 1001.0 7.6 NW 9.2 0.0 0.0
07:02 13.2 10.7 85 1000.9 7.6 NW 9.2 0.0 0.0
07:04 13.2 10.7 85 1001.0 7.6 NW 9.2 0.0 0.0
07:05 13.2 10.7 85 1001.0 7.6 NW 8.3 0.0 0.0
07:06 13.1 10.6 85 1000.9 8.3 W 8.3 0.0 0.0
07:07 13.0 10.5 85 1001.0 6.9 N 8.3 0.0 0.0
07:08 13.0 10.5 85 1000.9 10.7 N 10.7 0.0 0.0
07:09 13.0 10.5 85 1000.7 6.9 NW 10.7 0.0 0.0
07:10 13.0 10.5 85 1000.8 6.0 WNW 10.7 0.0 0.0
07:11 13.0 10.5 85 1000.9 7.6 NW 10.7 0.0 0.0
07:12 13.0 10.5 85 1001.1 6.9 NNW 10.7 0.0 0.0
07:13 13.0 10.5 85 1001.0 9.2 NNW 10.7 0.0 0.0
07:14 13.0 10.5 85 1001.2 8.3 W 10.7 0.0 0.0
07:15 13.0 10.5 85 1001.0 8.3 SW 10.7 0.0 0.0
07:16 12.9 10.4 85 1000.9 6.9 NNW 10.7 0.0 0.0
07:18 12.9 10.4 85 1001.2 6.9 WNW 10.7 0.0 0.0
07:19 12.9 10.4 85 1000.9 6.9 WNW 9.2 0.0 0.0
07:20 12.9 10.4 85 1001.0 6.9 SW 9.2 0.0 0.0
07:21 12.9 10.4 85 1001.3 6.9 N 9.2 0.0 0.0
07:22 12.9 10.4 85 1001.0 6.9 W 9.2 0.0 0.0
07:23 12.9 10.4 85 1001.0 6.9 W 9.2 0.0 0.0
07:24 12.9 10.4 85 1001.0 8.3 N 8.3 0.0 0.0
07:25 12.9 10.4 85 1001.0 9.2 NNW 9.2 0.0 0.0
07:26 12.9 10.4 85 1001.1 8.3 N 9.2 0.0 0.0
07:27 12.9 10.4 85 1001.1 8.3 NE 9.2 0.0 0.0
07:28 12.9 10.4 85 1000.9 7.6 SE 9.2 0.0 0.0
07:29 12.8 10.3 85 1001.1 5.4 N 9.2 0.0 0.0
07:30 12.8 10.3 85 1001.3 6.0 N 9.2 0.0 0.0
07:32 12.8 10.3 85 1001.2 8.3 N 9.2 0.0 0.0
07:33 12.8 10.3 85 1001.0 3.8 SW 9.2 0.0 0.0
07:34 12.8 10.3 85 1001.2 6.0 N 9.2 0.0 0.0
07:35 12.8 10.3 85 1001.2 5.4 W 8.3 0.0 0.0
07:36 12.8 10.3 85 1001.1 4.5 N 8.3 0.0 0.0
07:37 12.8 10.3 85 1001.1 8.3 N 8.3 0.0 0.0
07:38 12.8 10.3 85 1001.1 5.4 W 8.3 0.0 0.0
07:39 12.8 10.3 85 1001.1 5.4 S 8.3 0.0 0.0
07:40 12.8 10.3 85 1000.9 10.7 NW 10.7 0.0 0.0
07:41 12.8 10.3 85 1001.1 13.6 NNW 13.6 0.0 0.0
07:42 12.8 10.3 85 1000.9 13.6 WNW 13.6 0.0 0.0
07:43 12.8 10.3 85 1001.1 13.6 WNW 13.6 0.0 0.0
07:44 12.8 10.3 85 1001.1 12.1 NW 13.6 0.0 0.0
07:46 12.8 10.3 85 1001.1 9.8 NW 13.6 0.0 0.0
07:47 12.8 10.3 85 1001.1 9.8 N 13.6 0.0 0.0
07:48 12.8 10.3 85 1001.0 11.4 SW 13.6 0.0 0.0
07:49 12.7 10.2 85 1001.1 10.7 N 13.6 0.0 0.0
07:50 12.7 10.2 85 1001.1 6.0 N 13.6 0.0 0.0
07:51 12.7 10.2 85 1001.1 6.0 N 13.6 0.0 0.0
07:52 12.7 10.2 85 1001.1 8.3 NNW 13.6 0.0 0.0
07:53 12.7 10.2 85 1001.1 9.8 W 13.0 0.0 0.0
07:54 12.7 10.2 85 1001.1 15.2 W 15.2 0.0 0.0
07:55 12.7 10.2 85 1001.0 15.2 N 15.2 0.0 0.0
07:56 12.7 10.2 85 1001.1 11.4 NW 15.2 0.0 0.0
07:57 12.7 10.2 85 1001.0 13.6 WNW 15.2 0.0 0.0
07:58 12.7 10.2 85 1001.1 10.7 WNW 15.2 0.0 0.0
07:59 12.7 10.2 85 1001.0 7.6 W 15.2 0.0 0.0
08:00 12.7 10.2 85 1001.2 7.6 N 15.2 0.0 0.0
08:01 12.7 10.2 85 1001.2 11.4 N 15.2 17.4 1.4
08:02 12.7 10.2 85 1001.2 14.5 NE 15.2 17.4 1.4
08:03 12.7 10.2 85 1001.2 10.7 NE 15.2 17.4 1.4
08:04 12.7 10.2 85 1001.2 13.0 N 15.2 17.4 1.5
08:05 12.6 10.1 85 1001.2 9.8 N 15.2 18.1 1.5
08:06 12.6 10.1 85 1001.3 9.8 SW 14.5 0.8 1.5
08:07 12.6 10.1 85 1001.3 11.4 NW 14.5 0.8 1.5
08:08 12.5 10.1 85 1001.1 10.7 N 14.5 1.5 1.6
08:09 12.5 10.1 85 1001.0 9.8 NE 14.5 1.5 1.6
08:10 12.5 10.1 85 1001.1 9.8 N 14.5 0.8 1.6
08:11 12.5 10.1 85 1001.2 9.8 NNW 14.5 0.8 1.6
08:12 12.4 10.6 89 1001.3 12.1 NW 14.5 0.8 1.6
08:14 12.4 10.6 89 1001.3 7.6 NNW 13.0 0.0 1.6
08:15 12.4 10.6 89 1001.3 11.4 NW 12.1 0.0 1.6
08:16 12.4 10.6 89 1001.3 11.4 N 12.1 0.0 1.6
08:17 12.3 10.5 89 1001.3 11.4 N 12.1 0.0 1.6
08:18 12.3 10.5 89 1001.3 11.4 N 12.1 0.0 1.6
08:19 12.3 10.5 89 1001.3 11.4 N 12.1 0.0 1.6
08:20 12.3 10.5 89 1001.1 9.8 W 12.1 0.0 1.6
08:21 12.3 10.5 89 1001.0 7.6 N 12.1 0.0 1.6
08:22 12.3 10.5 89 1001.2 13.6 N 13.6 0.0 1.6
08:23 12.3 10.5 89 1001.0 13.6 W 13.6 0.0 1.6
08:24 12.3 10.5 89 1001.3 11.4 W 13.6 0.0 1.6
08:25 12.3 10.5 89 1001.2 7.6 W 13.6 0.0 1.6
08:26 12.3 10.5 89 1001.2 7.6 N 13.6 0.0 1.6
08:28 12.3 10.5 89 1001.2 6.0 W 13.6 0.0 1.6
08:29 12.3 10.5 89 1001.2 10.7 W 13.6 0.0 1.6
08:30 12.3 10.5 89 1001.4 8.3 WNW 13.6 0.0 1.6
08:31 12.3 10.5 89 1001.4 9.2 S 13.6 0.0 1.6
08:32 12.3 10.5 89 1001.4 6.9 N 13.6 0.0 1.6
08:33 12.3 10.5 89 1001.3 6.0 W 11.4 0.0 1.6
08:34 12.3 10.5 89 1001.3 6.0 W 11.4 0.0 1.6
08:35 12.3 10.5 89 1001.5 8.3 W 10.7 0.0 1.6
08:36 12.3 10.5 89 1001.4 6.9 W 10.7 0.0 1.6
08:37 12.3 10.5 89 1001.3 8.3 NE 10.7 0.0 1.6
08:38 12.3 10.5 89 1001.3 7.6 W 10.7 0.0 1.6
08:39 12.3 10.5 89 1001.5 6.9 W 10.7 0.0 1.6
08:40 12.3 10.5 89 1001.4 3.8 S 10.7 0.0 1.6
08:42 12.3 10.5 89 1001.3 9.2 N 9.2 0.0 1.6
08:43 12.3 10.5 89 1001.3 6.9 NW 9.2 0.0 1.6
08:44 12.3 10.5 89 1001.3 8.3 N 9.2 0.0 1.6
08:45 12.3 10.5 89 1001.5 9.2 NW 9.2 0.0 1.6
08:46 12.3 10.5 89 1001.3 9.2 N 9.2 0.0 1.6
08:47 12.3 10.5 89 1001.5 6.9 SW 9.2 0.0 1.6
08:48 12.3 10.5 89 1001.2 7.6 NE 9.2 0.0 1.6
08:49 12.3 10.5 89 1001.4 7.6 W 9.2 0.0 1.6
08:50 12.3 10.5 89 1001.3 6.9 NNW 9.2 0.0 1.6
08:51 12.4 10.6 89 1001.6 7.6 W 9.2 0.0 1.6
08:52 12.4 10.6 89 1001.4 9.2 NNW 9.2 0.0 1.6
08:53 12.4 10.6 89 1001.4 9.2 N 9.2 0.0 1.6
08:54 12.4 10.6 89 1001.5 10.7 SW 10.7 0.0 1.6
08:56 12.4 10.6 89 1001.3 6.0 NW 10.7 0.0 1.6
08:57 12.5 10.1 85 1001.4 8.3 W 10.7 0.0 1.6
08:58 12.5 10.1 85 1001.3 8.3 W 10.7 0.0 1.6
08:59 12.5 10.1 85 1001.4 9.2 N 10.7 0.0 1.6
09:00 12.5 9.9 84 1001.4 8.3 N 10.7 0.0 1.6
09:01 12.5 9.9 84 1001.3 8.3 N 10.7 0.0 1.6
09:02 12.5 9.9 84 1001.3 8.3 N 10.7 0.0 1.6
09:03 12.5 9.9 84 1001.4 7.6 W 10.7 0.8 1.6
09:04 12.5 9.9 84 1001.5 9.2 W 10.7 0.8 1.6
09:05 12.5 9.9 84 1001.7 9.8 W 9.8 0.8 1.6
09:06 12.5 9.9 84 1001.5 6.9 SW 9.8 0.8 1.6
09:07 12.5 9.9 84 1001.6 7.6 NW 9.8 0.8 1.6
09:08 12.5 9.9 84 1001.5 12.1 W 12.1 0.0 1.6
09:10 12.5 9.9 84 1001.5 6.0 N 12.1 0.0 1.6
09:11 12.5 9.9 84 1001.7 8.3 W 12.1 0.0 1.6
09:12 12.5 9.9 84 1001.6 9.2 NE 12.1 0.0 1.6
09:13 12.5 9.9 84 1001.6 9.2 N 12.1 0.0 1.6
09:14 12.5 9.9 84 1001.7 11.4 NE 12.1 0.0 1.6
09:15 12.5 9.9 84 1001.6 9.2 NNW 12.1 0.0 1.6
09:16 12.5 9.9 84 1001.6 8.3 W 12.1 0.0 1.6
09:17 12.5 9.9 84 1001.6 8.3 N 12.1 0.0 1.6
09:18 12.5 9.9 84 1001.7 10.7 NNW 12.1 0.0 1.6
09:19 12.5 9.9 84 1001.6 9.8 W 12.1 0.0 1.6
09:20 12.5 9.9 84 1001.8 6.9 N 11.4 0.0 1.6
09:21 12.6 10.0 84 1001.7 6.0 W 11.4 0.0 1.6
09:22 12.6 10.0 84 1001.6 9.2 NW 11.4 0.0 1.6
09:24 12.6 9.8 83 1001.5 7.6 N 11.4 0.0 1.6
09:25 12.6 9.8 83 1001.6 6.9 W 10.7 0.0 1.6
09:26 12.6 9.8 83 1001.7 8.3 W 10.7 0.0 1.6
09:27 12.6 9.8 83 1001.6 7.6 W 10.7 0.0 1.6
09:28 12.6 9.8 83 1001.5 9.2 E 9.8 0.0 1.6
09:29 12.6 9.8 83 1001.7 5.4 N 9.2 0.0 1.6
09:30 12.6 9.8 83 1001.7 5.4 N 9.2 0.0 1.6
09:31 12.6 9.8 83 1001.6 12.1 N 12.1 0.0 1.6
09:32 12.6 9.8 83 1001.7 6.9 N 12.1 0.0 1.6
09:33 12.7 9.7 82 1001.4 5.4 SW 12.1 0.0 1.6
09:34 12.7 9.7 82 1001.7 6.9 W 12.1 0.0 1.6
09:35 12.7 9.7 82 1001.5 4.5 W 12.1 0.0 1.6
09:36 12.7 9.7 82 1001.6 8.3 NNW 12.1 0.0 1.6
09:38 12.7 9.7 82 1001.7 7.6 NW 12.1 0.0 1.6
09:39 12.7 9.7 82 1001.6 7.6 NE 12.1 0.0 1.6
09:40 12.7 9.5 81 1001.6 6.9 N 12.1 0.0 1.6
09:41 12.7 9.5 81 1001.7 6.9 NW 10.7 0.0 1.6
09:42 12.8 9.6 81 1001.6 6.0 N 9.2 0.0 1.6
09:43 12.8 9.6 81 1001.8 7.6 W 9.2 0.0 1.6
09:44 12.8 9.6 81 1001.6 7.6 N 9.2 0.0 1.6
09:45 12.8 9.6 81 1001.7 4.5 WNW 9.2 0.0 1.6
09:46 12.8 9.6 81 1001.5 4.5 NW 9.2 0.0 1.6
09:47 12.9 9.7 81 1001.6 8.3 SE 9.2 0.0 1.6
09:48 12.9 9.7 81 1001.5 5.4 W 9.2 0.0 1.6
09:49 12.9 9.7 81 1001.6 4.5 NW 8.3 0.0 1.6
09:50 13.0 9.8 81 1001.7 7.6 W 8.3 0.0 1.6
09:52 13.0 9.8 81 1001.6 6.9 N 8.3 0.0 1.6
09:53 13.1 9.9 81 1001.7 6.9 E 8.3 0.0 1.6
09:54 13.1 9.9 81 1001.9 5.4 WNW 8.3 0.0 1.6
09:55 13.2 10.0 81 1001.5 6.0 WNW 8.3 0.0 1.6
09:56 13.2 10.0 81 1001.5 6.0 NNW 8.3 0.0 1.6
09:57 13.3 10.1 81 1001.5 11.4 NW 11.4 0.0 1.6
09:58 13.3 10.1 81 1001.5 11.4 NW 11.4 0.0 1.6
09:59 13.3 10.1 81 1001.4 8.3 NW 11.4 0.0 1.6
10:00 13.3 9.9 80 1001.6 9.8 S 11.4 0.0 1.6
10:01 13.4 10.0 80 1001.6 6.0 W 11.4 0.0 1.6
10:02 13.4 10.0 80 1001.7 6.0 W 11.4 0.0 1.6
10:03 13.5 10.1 80 1001.6 9.2 N 11.4 0.0 1.6
10:04 13.5 10.1 80 1001.5 6.9 W 11.4 0.0 1.6
10:05 13.6 10.2 80 1001.7 5.4 N 11.4 0.0 1.6
10:07 13.6 10.2 80 1001.9 6.9 NNW 11.4 0.0 1.6
10:08 13.6 10.0 79 1001.5 6.9 W 9.8 0.0 1.6
10:09 13.7 10.1 79 1001.7 8.3 WNW 9.8 0.0 1.6
10:10 13.7 10.1 79 1001.7 8.3 W 9.2 0.0 1.6
10:11 13.7 9.9 78 1001.7 9.2 ESE 9.2 0.0 1.6
10:12 13.7 9.9 78 1001.9 9.2 W 9.2 0.0 1.6
10:13 13.7 9.9 78 1001.7 7.6 NW 9.2 0.0 1.6
10:14 13.7 9.9 78 1001.6 9.2 NNW 9.2 0.0 1.6
10:15 13.7 9.7 77 1001.7 10.7 W 10.7 0.0 1.6
10:16 13.7 9.7 77 1001.7 6.9 N 10.7 0.0 1.6
10:17 13.7 9.7 77 1001.7 9.2 NW 10.7 0.0 1.6
10:18 13.7 9.7 77 1001.7 6.0 W 10.7 0.0 1.6
10:19 13.7 9.7 77 1001.6 7.6 N 10.7 0.0 1.6
10:21 13.8 9.6 76 1001.7 6.0 W 10.7 0.0 1.6
10:22 13.8 9.6 76 1001.6 6.0 N 10.7 0.0 1.6
10:23 13.8 9.6 76 1001.6 6.0 N 10.7 0.0 1.6
10:24 13.8 9.6 76 1001.7 8.3 W 10.7 0.0 1.6
10:25 13.7 9.6 76 1001.5 10.7 W 10.7 0.0 1.6
10:26 13.7 9.6 76 1001.5 10.7 W 10.7 0.0 1.6
10:27 13.7 9.6 76 1001.7 10.7 N 10.7 0.0 1.6
10:28 13.7 9.4 75 1001.6 9.2 SE 10.7 0.0 1.6
10:29 13.6 9.3 75 1001.8 9.8 N 10.7 0.0 1.6
10:30 13.6 9.3 75 1002.0 10.7 N 10.7 0.0 1.6
10:31 13.6 9.3 75 1001.9 10.7 N 10.7 0.0 1.6
10:32 13.6 9.1 74 1001.7 11.4 N 11.4 0.0 1.6
10:33 13.6 9.1 74 1001.7 10.7 NW 11.4 0.0 1.6
10:34 13.6 9.1 74 1001.9 10.7 N 11.4 0.0 1.6
10:35 13.6 8.9 73 1002.1 9.2 N 11.4 0.0 1.6
10:36 13.6 8.9 73 1001.8 8.3 NW 11.4 0.0 1.6
10:37 13.6 8.9 73 1001.6 10.7 SW 11.4 0.0 1.6
10:38 13.6 8.9 73 1001.7 10.7 W 11.4 0.0 1.6
10:39 13.7 9.0 73 1001.9 9.8 SW 11.4 0.0 1.6
10:40 13.7 9.0 73 1001.9 9.8 SW 11.4 0.0 1.6
10:41 13.7 9.0 73 1001.7 13.6 NW 13.6 0.0 1.6
10:42 13.7 8.7 72 1001.7 13.6 N 13.6 0.0 1.6
10:43 13.7 8.7 72 1001.8 13.0 W 13.6 0.0 1.6
10:44 13.6 8.7 72 1001.7 9.8 W 13.6 0.0 1.6
10:45 13.6 8.7 72 1001.6 9.8 N 13.6 0.0 1.6
10:46 13.6 8.7 72 1002.0 9.2 WNW 13.6 0.0 1.6
10:47 13.7 8.7 72 1001.6 9.8 N 13.6 0.0 1.6
10:49 13.8 8.8 72 1001.9 12.1 WNW 13.6 0.0 1.6
10:50 13.8 8.6 71 1001.9 10.7 SW 13.6 0.0 1.6
10:51 13.8 8.6 71 1001.8 10.7 NW 13.6 0.0 1.6
10:52 13.8 8.6 71 1001.7 10.7 W 13.0 0.0 1.6
10:53 14.0 8.8 71 1001.9 9.2 WSW 12.1 0.0 1.6
10:54 14.0 8.8 71 1001.9 9.2 WSW 12.1 0.0 1.6
10:55 14.0 8.8 71 1001.9 10.7 N 12.1 0.0 1.6
10:56 14.1 8.7 70 1001.8 11.4 SW 12.1 0.0 1.6
10:57 14.1 8.7 70 1001.9 9.2 W 12.1 0.0 1.6
10:58 14.1 8.7 70 1002.0 10.7 NW 12.1 0.0 1.6
10:59 14.1 8.7 70 1001.8 13.0 W 13.0 0.0 1.6
11:00 14.1 8.7 70 1001.9 13.0 N 13.0 0.0 1.6
11:01 14.1 8.7 70 1001.9 13.0 W 13.0 0.0 1.6
11:03 14.1 8.7 70 1002.1 13.0 W 13.0 0.0 1.6
11:04 14.1 8.7 70 1001.8 13.0 W 13.0 0.0 1.6
11:05 13.9 8.5 70 1001.9 16.8 W 16.8 0.0 1.6
11:06 13.9 8.5 70 1001.8 13.0 W 16.8 0.0 1.6
11:07 14.0 8.6 70 1002.1 13.0 W 16.8 0.0 1.6
11:08 14.0 8.6 70 1002.0 13.0 W 16.8 0.0 1.6
11:09 14.1 8.9 71 1001.9 10.7 SW 16.8 0.0 1.6
11:10 14.2 9.0 71 1002.1 13.0 SW 16.8 0.0 1.6
11:11 14.2 8.8 70 1001.9 12.1 NNW 16.8 0.0 1.6
11:12 14.3 8.9 70 1001.9 11.4 W 16.8 0.0 1.6
11:13 14.3 8.9 70 1002.1 13.0 NW 16.8 0.0 1.6
11:14 14.3 8.9 70 1002.0 13.0 W 16.8 0.0 1.6
11:15 14.3 8.9 70 1001.9 9.2 W 16.8 0.0 1.6
11:16 14.2 8.6 69 1002.0 12.1 W 13.0 0.0 1.6
11:17 14.2 8.4 68 1002.1 13.6 W 13.6 0.0 1.6
11:19 14.1 8.1 67 1002.2 13.0 W 13.6 0.0 1.6
11:20 14.1 8.1 67 1001.8 13.0 N 13.6 0.0 1.6
11:21 14.2 8.2 67 1002.2 8.3 W 13.6 0.0 1.6
11:22 14.3 8.5 68 1002.2 8.3 W 13.6 0.0 1.6
11:23 14.4 8.6 68 1001.8 9.8 N 13.6 0.0 1.6
11:24 14.5 8.5 67 1002.1 12.1 N 13.6 0.0 1.6
11:25 14.5 8.5 67 1001.9 12.1 W 13.6 0.0 1.6
11:26 14.5 8.2 66 1002.0 13.6 N 13.6 0.0 1.6
11:27 14.5 8.0 65 1002.1 9.8 NW 13.6 0.0 1.6
11:28 14.4 7.7 64 1001.9 9.2 W 13.6 0.0 1.6
11:29 14.3 7.6 64 1002.0 13.0 N 13.6 0.0 1.6
11:30 14.3 7.4 63 1002.0 15.2 N 15.2 0.0 1.6
11:31 14.3 7.4 63 1001.8 15.2 N 15.2 0.0 1.6
11:33 13.9 7.2 64 1002.1 9.2 NNW 15.2 0.0 1.6
11:34 13.9 7.2 64 1002.0 10.7 NW 15.2 0.0 1.6
11:35 13.8 7.1 64 1002.1 6.9 SW 15.2 0.0 1.6
11:36 13.8 7.1 64 1001.8 9.8 N 15.2 0.0 1.6
11:37 13.8 7.6 66 1002.1 9.8 W 15.2 0.0 1.6
11:38 13.9 7.7 66 1002.1 9.8 SW 15.2 0.0 1.6
11:39 13.9 7.7 66 1002.1 9.8 SW 15.2 0.0 1.6
11:40 14.0 8.0 67 1002.1 6.9 W 15.2 0.0 1.6
11:41 14.1 8.1 67 1001.9 10.7 NE 12.1 0.0 1.6
11:42 14.2 8.2 67 1002.1 13.0 NW 13.0 0.0 1.6
11:43 14.2 8.2 67 1002.0 13.0 W 13.0 0.0 1.6
11:44 14.1 7.8 66 1002.1 8.3 NW 13.0 0.0 1.6
11:45 14.1 7.6 65 1002.0 8.3 NW 13.0 0.0 1.6
11:47 14.2 7.9 66 1002.0 9.2 N 13.0 0.0 1.6
11:48 14.3 8.0 66 1002.1 6.9 NW 13.0 0.0 1.6
11:49 14.6 8.3 66 1001.9 12.1 W 13.0 0.0 1.6
11:50 14.7 8.4 66 1002.1 17.4 NNW 17.4 0.0 1.6
11:51 14.7 8.2 65 1002.2 19.0 NW 19.0 0.0 1.6
11:52 14.6 8.1 65 1001.9 9.2 W 19.0 0.0 1.6
11:53 14.6 7.9 64 1002.2 11.4 NW 19.0 0.0 1.6
11:54 14.5 7.8 64 1002.0 11.4 W 19.0 0.0 1.6
11:55 14.4 7.5 63 1002.2 10.7 W 19.0 0.0 1.6
11:56 14.4 7.5 63 1002.0 9.8 NE 19.0 0.0 1.6
11:57 14.5 7.8 64 1002.0 9.2 W 19.0 0.0 1.6
11:58 14.5 7.8 64 1002.0 10.7 W 19.0 0.0 1.6
11:59 14.5 7.5 63 1002.1 10.7 NNW 19.0 0.0 1.6
12:01 14.5 7.5 63 1002.0 9.8 NW 19.0 0.0 1.6
12:02 14.3 7.4 63 1002.0 9.8 W 11.4 0.0 1.6
12:03 14.3 7.4 63 1001.9 9.2 NW 11.4 0.0 1.6
12:04 14.2 7.3 63 1002.1 12.1 NW 12.1 0.0 1.6
12:05 14.3 7.6 64 1002.1 9.8 NW 13.0 0.0 1.6
12:06 14.4 7.7 64 1001.8 10.7 W 13.0 0.0 1.6
12:07 14.4 7.7 64 1001.8 10.7 W 13.0 0.0 1.6
12:08 14.5 7.8 64 1002.0 8.3 NW 13.0 0.0 1.6
12:09 14.6 7.9 64 1002.0 9.8 NW 13.0 0.0 1.6
12:10 14.7 8.0 64 1001.9 10.7 NW 13.0 0.0 1.6
12:11 14.8 7.8 63 1002.0 11.4 N 13.0 0.0 1.6
12:12 14.9 7.9 63 1001.8 12.1 SW 13.0 0.0 1.6
12:13 15.1 8.3 64 1001.8 16.8 W 16.8 0.0 1.6
12:15 15.3 8.1 62 1001.9 13.0 W 16.8 0.0 1.6
12:16 15.3 8.1 62 1001.9 13.6 NW 16.8 0.0 1.6
12:17 15.3 8.1 62 1001.9 13.6 N 16.8 0.0 1.6
12:18 15.3 8.1 62 1002.0 13.6 W 16.8 0.0 1.6
12:19 15.3 8.1 62 1001.9 15.9 W 16.8 0.0 1.6
12:20 15.2 8.0 62 1001.8 11.4 WSW 16.8 0.0 1.6
12:21 15.2 7.7 61 1002.0 14.5 SW 16.8 0.0 1.6
12:22 15.2 7.7 61 1002.0 15.9 NW 16.8 0.0 1.6
12:23 15.2 7.7 61 1001.9 15.9 SW 16.8 0.0 1.6
12:24 15.2 7.7 61 1001.9 11.4 WNW 15.9 0.0 1.6
12:25 15.1 7.4 60 1001.9 9.8 NW 15.9 0.0 1.6
12:26 15.1 7.4 60 1002.0 13.6 E 15.9 0.0 1.6
12:27 15.0 7.1 59 1002.0 11.4 NW 15.9 0.0 1.6
12:29 14.9 7.2 60 1001.9 11.4 W 15.9 0.0 1.6
12:30 14.9 7.2 60 1001.7 9.2 W 15.9 0.0 1.6
12:31 14.9 7.2 60 1002.0 8.3 W 15.9 0.0 1.6
12:32 15.0 7.3 60 1001.9 10.7 W 15.9 0.0 1.6
12:33 15.0 7.5 61 1001.9 9.8 NE 13.6 0.0 1.6
12:34 15.1 7.6 61 1001.9 7.6 NW 13.6 0.0 1.6
12:35 15.1 7.6 61 1001.9 7.6 NW 13.6 0.0 1.6
12:36 15.4 8.4 63 1001.8 9.2 W 13.6 0.0 1.6
12:37 15.4 8.4 63 1001.9 9.2 W 11.4 0.0 1.6
12:38 15.5 8.5 63 1001.7 10.7 NW 11.4 0.0 1.6
12:39 15.5 8.3 62 1001.8 10.7 W 11.4 0.0 1.6
12:40 15.5 8.0 61 1002.0 15.2 W 15.2 0.0 1.6
12:41 15.3 7.6 60 1001.9 9.8 NW 15.2 0.0 1.6
12:43 15.0 7.3 60 1002.0 15.2 NW 15.2 0.0 1.6
12:44 14.9 7.2 60 1002.0 13.6 W 15.2 0.0 1.6
12:45 14.7 7.0 60 1002.0 11.4 SW 15.2 0.0 1.6
12:46 14.7 7.0 60 1002.0 15.2 NW 15.2 0.0 1.6
12:47 14.6 6.9 60 1002.2 15.2 W 15.2 0.0 1.6
12:48 14.6 6.9 60 1002.1 10.7 W 15.2 0.0 1.6
12:49 14.6 7.2 61 1001.9 9.8 WNW 15.2 0.0 1.6
12:50 14.6 7.2 61 1001.9 10.7 W 15.2 0.0 1.6
12:51 14.5 7.1 61 1002.1 10.7 N 15.2 0.0 1.6
12:52 14.5 7.1 61 1001.9 9.2 WNW 15.2 0.0 1.6
12:53 14.5 7.1 61 1001.9 10.7 W 15.2 0.0 1.6
12:54 14.5 7.1 61 1002.1 8.3 W 15.2 0.0 1.6
12:55 14.4 7.0 61 1002.0 11.4 NW 15.2 0.0 1.6
12:57 14.5 7.5 63 1002.2 11.4 WNW 15.2 0.0 1.6
12:58 14.5 7.5 63 1002.0 16.8 SW 16.8 0.0 1.6
12:59 14.6 7.4 62 1001.9 16.8 WSW 16.8 0.0 1.6
13:00 14.6 7.4 62 1002.0 15.2 W 16.8 0.0 1.6
13:01 14.6 7.4 62 1001.8 15.2 W 16.8 0.0 1.6
13:02 14.6 7.4 62 1001.9 11.4 W 16.8 0.0 1.6
13:03 14.6 7.4 62 1001.9 11.4 W 16.8 0.0 1.6
13:04 14.5 7.3 62 1001.8 13.0 W 16.8 0.0 1.6
13:05 14.6 7.4 62 1002.1 11.4 S 16.8 0.0 1.6
13:06 14.6 7.4 62 1001.9 11.4 NW 16.8 0.0 1.6
13:07 14.7 7.5 62 1001.7 12.1 NW 16.8 0.0 1.6
13:08 14.8 7.6 62 1001.9 14.5 N 16.8 0.0 1.6
13:09 14.8 7.6 62 1001.9 13.6 W 16.8 0.0 1.6
13:11 14.7 7.5 62 1002.2 13.6 NNW 15.2 0.0 1.6
13:12 14.7 7.5 62 1001.8 14.5 NW 14.5 0.0 1.6
13:14 14.6 7.2 61 1001.9 13.6 NW 14.5 0.0 1.6
13:15 14.6 7.2 61 1001.8 11.4 NW 14.5 0.0 1.6
13:16 14.5 7.3 62 1001.9 14.5 WSW 14.5 0.0 1.6
13:17 14.5 7.3 62 1002.0 12.1 W 14.5 0.0 1.6
13:18 14.5 7.3 62 1001.9 11.4 SW 14.5 0.0 1.6
13:19 14.5 7.3 62 1002.1 12.1 W 14.5 0.0 1.6
13:21 14.6 7.9 64 1001.9 7.6 W 14.5 0.0 1.6
13:22 14.6 7.9 64 1001.8 13.6 SW 14.5 0.0 1.6
13:23 14.7 8.0 64 1001.8 13.6 WNW 14.5 0.0 1.6
13:24 14.7 7.7 63 1001.8 14.5 NW 14.5 0.0 1.6
13:25 14.6 7.4 62 1001.9 10.7 WNW 14.5 0.0 1.6
13:26 14.6 7.4 62 1001.7 13.0 NW 14.5 0.0 1.6
13:27 14.6 7.4 62 1001.7 13.0 NW 14.5 0.0 1.6
13:28 14.5 7.3 62 1001.7 15.2 W 15.2 0.0 1.6
13:29 14.5 7.3 62 1002.0 15.2 NW 15.2 0.0 1.6
13:30 14.5 7.5 63 1001.6 10.7 N 15.2 0.0 1.6
13:31 14.5 7.5 63 1002.1 10.7 W 15.2 0.0 1.6
13:32 14.4 7.5 63 1001.7 11.4 NW 15.2 0.0 1.6
13:33 14.4 7.5 63 1001.9 12.1 WNW 15.2 0.0 1.6
13:35 14.5 7.5 63 1001.7 11.4 SE 15.2 0.0 1.6
13:36 14.5 7.5 63 1001.7 10.7 NW 15.2 0.0 1.6
13:37 14.5 7.3 62 1002.0 13.0 W 15.2 0.0 1.6
13:38 14.5 7.3 62 1001.9 12.1 N 15.2 0.0 1.6
13:39 14.4 7.2 62 1001.7 14.5 W 14.5 0.0 1.6
13:40 14.4 7.2 62 1001.8 11.4 NW 14.5 0.0 1.6
13:41 14.3 7.1 62 1001.7 12.1 W 14.5 0.0 1.6
13:42 14.3 7.1 62 1001.8 13.6 W 14.5 0.0 1.6
13:43 14.2 7.0 62 1001.6 13.6 W 14.5 0.0 1.6
13:44 14.2 7.0 62 1001.7 15.9 S 15.9 0.0 1.6
13:45 14.1 6.9 62 1001.7 11.4 SW 15.9 0.0 1.6
13:46 14.1 6.9 62 1001.8 12.1 NW 15.9 0.0 1.6
13:47 14.1 6.9 62 1001.9 12.1 NW 15.9 0.0 1.6
13:49 14.1 7.4 64 1001.7 9.8 W 15.9 0.0 1.6
13:50 14.1 7.4 64 1001.9 12.1 SW 15.9 0.0 1.6
13:51 14.1 7.4 64 1001.8 9.8 W 15.9 0.0 1.6
13:52 14.1 7.4 64 1001.6 9.8 NW 15.9 0.0 1.6
13:53 14.1 7.4 64 1001.8 13.6 N 15.9 0.0 1.6
13:54 14.1 7.4 64 1001.7 8.3 W 15.9 0.0 1.6
13:55 14.1 7.4 64 1001.7 8.3 W 13.6 0.0 1.6
13:56 14.1 7.4 64 1001.9 12.1 WNW 13.6 0.0 1.6
13:57 14.1 7.4 64 1001.6 7.6 W 13.6 0.0 1.6
13:58 14.0 7.3 64 1001.7 9.2 W 13.6 0.0 1.6
13:59 14.0 7.3 64 1001.7 9.8 W 13.6 0.0 1.6
14:00 14.0 7.3 64 1001.8 9.8 W 13.6 0.0 1.6
14:01 13.9 7.4 65 1001.8 11.4 W 13.6 0.0 1.6
14:03 13.9 7.4 65 1001.7 11.4 W 13.6 0.0 1.6
14:04 13.9 7.4 65 1001.8 11.4 W 12.1 0.0 1.6
14:05 14.0 7.3 64 1001.8 13.0 NW 13.0 0.0 1.6
14:06 14.0 7.3 64 1001.7 8.3 W 13.0 0.0 1.6
14:07 14.0 7.3 64 1001.9 9.2 NW 13.0 0.0 1.6
14:08 14.0 7.3 64 1001.6 9.8 W 13.0 0.0 1.6
14:09 14.1 7.4 64 1001.7 9.8 SW 13.0 0.0 1.6
14:10 14.1 7.4 64 1001.8 9.2 W 13.0 0.0 1.6
14:11 14.1 7.4 64 1001.6 11.4 NW 13.0 0.0 1.6
14:12 14.2 7.3 63 1001.8 10.7 NE 13.0 0.0 1.6
14:13 14.2 7.3 63 1001.6 9.8 NW 13.0 0.0 1.6
14:14 14.1 6.9 62 1001.7 9.2 NW 13.0 0.0 1.6
14:15 14.1 6.9 62 1001.7 13.0 NW 13.0 0.0 1.6
14:17 14.1 6.9 62 1001.9 14.5 W 14.5 0.0 1.6
14:18 14.1 6.9 62 1001.6 14.5 NW 14.5 0.0 1.6
14:19 14.1 6.9 62 1001.8 14.5 NW 14.5 0.0 1.6
14:20 14.0 6.8 62 1001.6 13.0 SW 14.5 0.0 1.6
14:21 14.0 6.6 61 1001.6 16.8 W 16.8 0.0 1.6
14:22 14.1 6.9 62 1001.9 9.2 S 16.8 0.0 1.6
14:23 14.1 6.9 62 1001.9 9.2 S 16.8 0.0 1.6
14:24 14.2 7.0 62 1001.7 10.7 N 16.8 0.0 1.6
14:25 14.2 7.0 62 1001.8 9.2 W 16.8 0.0 1.6
14:26 14.3 7.1 62 1001.9 10.7 W 16.8 0.0 1.6
14:27 14.4 7.5 63 1001.8 14.5 W 16.8 0.0 1.6
14:28 14.5 7.3 62 1001.7 11.4 W 16.8 0.0 1.6
14:29 14.6 7.4 62 1001.9 14.5 W 16.8 0.0 1.6
14:30 14.7 7.5 62 1001.9 11.4 NW 16.8 0.0 1.6
14:32 14.9 7.7 62 1001.8 8.3 N 14.5 0.0 1.6
14:33 15.1 7.9 62 1001.8 15.9 W 15.9 0.0 1.6
14:34 15.1 7.9 62 1001.7 12.1 W 15.9 0.0 1.6
14:35 15.2 8.0 62 1001.7 9.8 W 15.9 0.0 1.6
14:36 15.3 8.1 62 1001.6 9.8 W 15.9 0.0 1.6
14:37 15.3 7.8 61 1001.6 13.0 W 15.9 0.0 1.6
14:38 15.3 7.8 61 1001.6 13.0 W 15.9 0.0 1.6
14:39 15.3 7.8 61 1001.7 9.8 W 15.9 0.0 1.6
14:40 15.2 7.7 61 1001.7 10.7 W 15.9 0.0 1.6
14:41 15.2 7.7 61 1001.9 15.9 NW 15.9 0.0 1.6
14:42 15.1 7.4 60 1001.6 11.4 W 15.9 0.0 1.6
14:43 15.0 7.3 60 1001.7 10.7 W 15.9 0.0 1.6
14:44 14.8 7.1 60 1001.8 14.5 W 15.9 0.0 1.6
14:45 14.8 7.1 60 1001.7 14.5 SW 15.9 0.0 1.6
14:46 14.7 7.0 60 1001.9 12.1 W 15.9 0.0 1.6
14:47 14.7 7.0 60 1001.7 12.1 W 15.9 0.0 1.6
14:48 14.6 6.9 60 1001.8 14.5 W 15.9 0.0 1.6
14:49 14.6 6.9 60 1001.9 13.6 NW 15.9 0.0 1.6
14:50 14.6 6.9 60 1001.8 17.4 W 17.4 0.0 1.6
14:51 14.6 6.9 60 1001.8 17.4 W 17.4 0.0 1.6
14:52 14.5 6.8 60 1001.7 15.2 SW 17.4 0.0 1.6
14:53 14.5 6.8 60 1001.7 15.2 W 17.4 0.0 1.6
14:54 14.4 6.7 60 1001.8 14.5 W 17.4 0.0 1.6
14:55 14.4 6.7 60 1001.8 14.5 W 17.4 0.0 1.6
14:56 14.3 6.6 60 1001.7 13.0 W 17.4 0.0 1.6
14:57 14.3 6.9 61 1001.8 13.0 W 17.4 0.0 1.6
14:58 14.3 6.9 61 1001.5 9.8 W 17.4 0.0 1.6
14:59 14.3 6.9 61 1001.6 11.4 NE 17.4 0.0 1.6
15:00 14.3 6.9 61 1001.7 11.4 NW 17.4 0.0 1.6
15:01 14.3 6.9 61 1002.0 12.1 W 17.4 0.0 1.6
15:02 14.3 6.9 61 1002.0 12.1 W 15.2 0.0 1.6
15:03 14.3 6.9 61 1001.7 12.1 W 15.2 0.0 1.6
15:04 14.3 6.9 61 1001.7 12.1 W 14.5 0.0 1.6
15:05 14.2 6.8 61 1001.6 15.9 W 15.9 0.0 1.6
15:06 14.1 6.7 61 1001.8 13.6 W 15.9 0.0 1.6
15:07 14.1 6.9 62 1001.4 13.6 W 15.9 0.0 1.6
15:08 14.1 6.9 62 1001.8 13.6 W 15.9 0.0 1.6
15:09 14.2 7.0 62 1001.9 10.7 NW 15.9 0.0 1.6
15:10 14.2 7.0 62 1001.6 6.0 W 15.9 0.0 1.6
15:11 14.2 7.0 62 1001.5 9.8 W 15.9 0.0 1.6
15:12 14.3 7.1 62 1001.7 8.3 W 15.9 0.0 1.6
15:13 14.3 7.1 62 1001.5 7.6 N 15.9 0.0 1.6
15:14 14.4 7.2 62 1001.5 11.4 N 15.9 0.0 1.6
15:15 14.5 7.3 62 1001.7 10.7 SW 15.9 0.0 1.6
15:16 14.6 7.4 62 1001.7 9.2 W 13.6 0.0 1.6
15:17 14.7 7.5 62 1001.6 13.0 S 13.6 0.0 1.6
15:18 14.7 7.3 61 1001.8 13.0 W 13.0 0.0 1.6
15:19 14.7 7.3 61 1001.7 10.7 W 13.0 0.0 1.6
15:20 14.7 7.3 61 1001.7 10.7 W 13.0 0.0 1.6
15:21 14.7 7.0 60 1001.9 14.5 W 14.5 0.0 1.6
15:22 14.6 6.9 60 1001.6 11.4 SW 14.5 0.0 1.6
15:23 14.6 6.9 60 1001.9 11.4 W 14.5 0.0 1.6
15:24 14.5 6.8 60 1001.8 12.1 NW 14.5 0.0 1.6
15:25 14.4 7.0 61 1001.7 14.5 NW 14.5 0.0 1.6
15:26 14.3 6.9 61 1001.6 13.0 SW 14.5 0.0 1.6
15:28 14.2 6.8 61 1001.8 7.6 NW 14.5 0.0 1.6
15:29 14.2 6.8 61 1001.9 15.2 SW 15.2 0.0 1.6
15:30 14.2 6.8 61 1001.6 11.4 NW 15.2 0.0 1.6
15:31 14.2 6.8 61 1001.7 14.5 NW 15.2 0.0 1.6
15:32 14.1 6.7 61 1001.8 10.7 W 15.2 0.0 1.6
15:33 14.1 6.7 61 1001.8 15.2 W 15.2 0.0 1.6
15:34 14.1 6.7 61 1001.8 15.2 W 15.2 0.0 1.6
15:35 14.1 6.7 61 1001.8 15.2 W 15.2 0.0 1.6
15:36 14.0 6.6 61 1001.7 10.7 W 15.2 0.0 1.6
15:37 14.0 6.8 62 1001.6 9.8 W 15.2 0.0 1.6
15:38 14.0 6.8 62 1001.7 10.7 N 15.2 0.0 1.6
15:39 14.0 6.8 62 1001.7 9.8 N 15.2 0.0 1.6
15:40 14.0 6.8 62 1001.8 9.8 N 15.2 0.0 1.6
15:42 14.0 6.8 62 1001.9 11.4 SSW 15.2 0.0 1.6
15:43 14.0 6.8 62 1001.8 7.6 W 15.2 0.0 1.6
15:44 14.1 7.2 63 1001.9 14.5 W 15.2 0.0 1.6
15:45 14.1 7.2 63 1002.0 9.2 W 14.5 0.0 1.6
15:46 14.1 7.2 63 1001.7 15.9 W 15.9 0.0 1.6
15:47 14.1 7.2 63 1001.7 15.9 W 15.9 0.0 1.6
15:48 14.1 7.2 63 1001.6 13.6 W 15.9 0.0 1.6
15:49 14.1 7.2 63 1001.8 13.0 W 15.9 0.0 1.6
15:50 14.1 7.2 63 1001.7 8.3 W 15.9 0.0 1.6
15:51 14.0 7.1 63 1001.7 9.8 W 15.9 0.0 1.6
15:52 14.0 7.1 63 1001.6 14.5 W 15.9 0.0 1.6
15:53 14.0 7.1 63 1001.9 14.5 W 15.9 0.0 1.6
15:54 14.0 6.8 62 1001.7 13.6 NW 15.9 0.0 1.6
15:56 13.9 6.7 62 1002.0 12.1 NW 15.9 0.0 1.6
15:57 13.9 6.7 62 1001.8 13.0 W 15.9 0.0 1.6
15:58 13.9 6.7 62 1001.7 13.0 W 14.5 0.0 1.6
15:59 13.9 6.7 62 1002.0 13.0 NW 14.5 0.0 1.6
16:00 13.9 6.7 62 1001.7 13.0 SW 14.5 0.0 1.6
16:01 13.9 6.7 62 1001.8 13.0 SW 14.5 0.0 1.6
16:02 13.9 6.7 62 1001.8 13.0 SW 14.5 0.0 1.6
16:03 13.9 7.0 63 1001.9 13.6 W 14.5 0.0 1.6
16:04 13.8 6.6 62 1001.7 12.1 W 13.6 0.0 1.6
16:05 13.8 6.6 62 1001.7 9.8 W 13.6 0.0 1.6
16:06 13.8 6.6 62 1001.8 13.0 W 13.6 0.0 1.6
16:07 13.8 6.6 62 1001.7 13.0 W 13.6 0.0 1.6
16:08 13.8 6.6 62 1001.8 11.4 WNW 13.6 0.0 1.6
16:10 13.7 6.6 62 1001.6 5.4 W 13.6 0.0 1.6
16:11 13.7 6.6 62 1001.8 9.2 W 13.6 0.0 1.6
16:12 13.7 6.8 63 1001.8 9.2 W 13.6 0.0 1.6
16:13 13.7 6.8 63 1001.7 7.6 NW 13.0 0.0 1.6
16:14 13.7 6.8 63 1001.6 9.8 W 13.0 0.0 1.6
16:15 13.7 6.8 63 1002.0 7.6 W 13.0 0.0 1.6
16:16 13.7 6.6 62 1001.8 7.6 W 13.0 0.0 1.6
16:17 13.7 6.6 62 1001.8 9.2 W 11.4 0.0 1.6
16:18 13.6 6.5 62 1001.9 9.2 W 11.4 0.0 1.6
16:19 13.6 6.5 62 1002.1 9.8 W 11.4 0.0 1.6
16:20 13.6 6.5 62 1001.9 10.7 SW 10.7 0.0 1.6
16:21 13.6 6.5 62 1001.9 10.7 NW 10.7 0.0 1.6
16:22 13.6 6.5 62 1002.0 9.8 NW 10.7 0.0 1.6
16:24 13.6 6.7 63 1001.8 10.7 NW 10.7 0.0 1.6
16:25 13.5 6.6 63 1002.0 11.4 N 11.4 0.0 1.6
16:26 13.5 6.6 63 1002.2 10.7 W 11.4 0.0 1.8
16:27 13.4 6.5 63 1002.1 15.2 SW 15.2 2.3 2.0
16:28 13.3 6.2 62 1002.1 15.2 W 15.2 3.8 2.0
16:29 13.1 6.0 62 1002.0 9.8 NW 15.2 3.8 2.1
16:30 13.1 6.0 62 1002.0 9.8 NW 15.2 5.3 2.1
16:31 13.0 5.7 61 1002.3 15.2 SW 15.2 5.3 2.1
16:32 12.7 5.4 61 1002.2 14.5 W 15.2 3.8 2.1
16:33 12.6 5.3 61 1002.3 10.7 SW 15.2 2.3 2.1
16:34 12.5 5.2 61 1002.1 10.7 W 15.2 3.0 2.2
16:35 12.4 5.8 64 1002.1 9.8 S 15.2 1.5 2.2
16:36 12.1 5.7 65 1002.0 9.8 N 15.2 1.5 2.2
16:38 11.7 5.3 65 1002.1 6.0 SW 15.2 0.8 2.2
16:39 11.6 5.2 65 1001.8 5.4 W 15.2 0.0 2.2
16:40 11.6 5.5 66 1002.0 5.4 W 15.2 0.0 2.2
16:41 11.4 5.3 66 1002.0 6.9 SW 15.2 0.0 2.2
16:42 11.4 5.5 67 1002.0 6.9 W 14.5 0.0 2.2
16:43 11.3 5.4 67 1002.0 7.6 SW 12.1 0.0 2.2
16:44 11.3 5.6 68 1002.0 6.0 W 12.1 0.0 2.2
16:45 11.2 5.5 68 1001.8 6.9 W 12.1 0.0 2.2
16:46 11.2 5.7 69 1002.0 5.4 W 9.8 0.0 2.2
16:47 11.2 5.9 70 1002.1 5.4 SW 8.3 0.0 2.2
16:48 11.2 5.9 70 1002.0 6.0 W 7.6 0.0 2.2
16:49 11.1 5.8 70 1002.0 4.5 W 7.6 0.0 2.2
16:50 11.1 5.8 70 1002.2 6.0 SW 7.6 0.0 2.2
16:52 11.1 6.0 71 1002.0 4.5 W 7.6 0.0 2.2
16:53 11.1 6.0 71 1002.0 6.0 NW 7.6 0.0 2.2
16:54 11.1 6.0 71 1001.9 5.4 W 6.9 0.0 2.2
16:55 11.2 6.1 71 1002.0 6.0 W 6.9 0.0 2.2
16:56 11.2 6.1 71 1001.7 4.5 SW 6.9 0.0 2.2
16:57 11.2 6.3 72 1002.0 6.0 W 6.9 0.0 2.2
16:58 11.2 6.3 72 1002.0 6.0 W 6.9 0.0 2.2
16:59 11.2 6.3 72 1002.0 6.0 W 6.9 0.0 2.2
17:00 11.2 6.3 72 1001.9 6.0 W 6.9 0.0 2.2
17:01 11.2 6.3 72 1002.0 5.4 N 6.9 0.0 2.2
17:02 11.2 6.3 72 1002.1 5.4 N 6.9 0.0 2.2
17:03 11.3 6.6 73 1001.9 9.8 SW 9.8 0.0 2.2
17:04 11.3 6.6 73 1002.0 6.0 SW 9.8 0.0 2.2
17:06 11.4 6.9 74 1001.9 6.9 W 9.8 0.0 2.2
17:07 11.5 7.0 74 1001.9 6.9 SW 9.8 0.0 2.2
17:08 11.5 7.0 74 1001.8 4.5 W 9.8 0.0 2.2
17:09 11.5 7.0 74 1001.9 6.9 SW 9.8 0.0 2.2
17:10 11.5 7.0 74 1002.0 5.4 W 9.8 0.0 2.2
17:11 11.6 7.1 74 1001.8 6.9 W 9.8 0.0 2.2
17:12 11.6 7.1 74 1002.0 6.0 W 9.8 0.0 2.3
17:13 11.6 7.1 74 1002.0 7.6 SW 7.6 1.5 2.3
17:14 11.6 7.1 74 1001.9 7.6 NW 7.6 3.0 2.5
17:15 11.6 7.3 75 1001.8 5.4 W 7.6 3.0 2.5
17:16 11.6 7.3 75 1002.0 5.4 SW 7.6 3.0 2.5
17:17 11.6 7.3 75 1001.9 6.0 W 7.6 3.8 2.5
17:18 11.6 7.3 75 1002.1 8.3 W 8.3 2.3 2.5
17:19 11.6 7.3 75 1002.0 10.7 W 10.7 0.8 2.5
17:20 11.6 7.3 75 1002.1 10.7 E 10.7 0.8 2.5
17:21 11.6 7.3 75 1002.0 6.9 W 10.7 0.8 2.5
17:22 11.6 7.3 75 1002.0 8.3 W 10.7 0.8 2.6
17:23 11.6 7.3 75 1001.9 7.6 W 10.7 0.8 2.6
17:24 11.6 7.3 75 1002.0 6.0 W 10.7 0.8 2.6
17:25 11.6 7.3 75 1001.8 6.9 W 10.7 0.8 2.6
17:26 11.6 7.3 75 1001.9 6.9 SW 10.7 0.8 2.6
17:27 11.6 7.3 75 1002.0 6.9 SW 10.7 0.0 2.6
17:29 11.5 7.2 75 1001.5 4.5 W 10.7 0.0 2.6
17:30 11.5 7.4 76 1001.6 6.0 W 10.7 0.8 2.6
17:31 11.5 7.4 76 1001.9 5.4 W 8.3 0.8 2.6
17:32 11.5 7.4 76 1001.9 6.0 SW 7.6 0.8 2.6
17:33 11.5 7.4 76 1001.9 5.4 S 6.9 0.8 2.6
17:34 11.5 7.4 76 1001.9 9.2 SW 9.2 0.8 2.6
17:35 11.5 7.4 76 1001.9 9.2 SW 9.2 0.0 2.6
17:36 11.5 7.4 76 1002.0 10.7 SW 10.7 0.0 2.6
17:37 11.5 7.4 76 1002.0 9.8 SW 10.7 0.0 2.6
17:38 11.4 7.3 76 1001.9 10.7 W 10.7 0.0 2.6
17:39 11.4 7.3 76 1002.0 9.2 SW 10.7 0.0 2.6
17:40 11.4 7.3 76 1001.9 8.3 W 10.7 0.0 2.6
17:41 11.3 7.2 76 1001.8 7.6 W 10.7 0.0 2.6
17:42 11.3 7.2 76 1002.0 8.3 S 10.7 0.0 2.6
17:43 11.3 7.2 76 1002.0 8.3 W 10.7 0.0 2.6
17:44 11.3 7.2 76 1001.9 8.3 SW 10.7 0.0 2.6
17:45 11.2 7.1 76 1001.9 8.3 SW 10.7 0.0 2.6
17:46 11.2 7.1 76 1002.0 6.0 SW 10.7 0.0 2.6
17:47 11.2 7.1 76 1001.7 7.6 W 10.7 0.0 2.6
17:48 11.2 7.1 76 1001.7 8.3 SW 9.8 0.0 2.6
17:49 11.1 7.0 76 1001.7 6.0 SW 9.8 0.0 2.6
17:50 11.1 7.0 76 1001.8 6.0 SW 9.8 0.0 2.6
17:51 11.1 7.0 76 1001.8 7.6 SW 9.8 0.0 2.6
17:52 11.1 7.2 77 1001.8 8.3 W 9.8 0.0 2.6
17:53 11.1 7.2 77 1002.0 8.3 W 9.8 0.0 2.6
17:54 11.1 7.2 77 1002.0 7.6 SW 9.8 0.0 2.6
17:55 11.1 7.2 77 1001.9 6.9 SW 9.8 0.0 2.6
17:56 11.1 7.2 77 1001.9 6.9 W 8.3 0.0 2.6
17:57 11.1 7.2 77 1001.8 7.6 SW 8.3 0.0 2.6
17:58 11.1 7.4 78 1002.0 9.8 W 9.8 0.0 2.6
17:59 11.1 7.4 78 1002.0 9.8 W 9.8 0.0 2.6
18:00 11.2 7.5 78 1002.0 6.9 SW 9.8 0.0 2.6
18:01 11.2 7.5 78 1001.8 6.9 SW 9.8 0.0 2.6
18:02 11.2 7.5 78 1001.9 8.3 W 9.8 0.0 2.6
18:03 11.2 7.5 78 1001.9 8.3 W 9.8 0.0 2.6
18:04 11.2 7.5 78 1002.0 8.3 W 9.8 0.0 2.6
18:05 11.2 7.5 78 1001.9 7.6 NW 9.8 0.0 2.6
18:06 11.2 7.5 78 1002.0 8.3 SW 9.8 0.0 2.6
18:07 11.2 7.5 78 1001.8 9.2 SW 9.8 0.0 2.6
18:08 11.2 7.5 78 1001.7 9.2 NW 9.8 0.0 2.6
18:09 11.2 7.3 77 1001.9 8.3 W 9.8 0.0 2.6
18:10 11.3 7.4 77 1001.9 8.3 W 9.2 0.0 2.6
18:11 11.3 7.4 77 1001.9 8.3 W 9.2 0.0 2.6
18:12 11.3 7.4 77 1001.8 8.3 W 9.2 0.0 2.6
18:13 11.4 7.5 77 1001.9 8.3 SW 11.4 0.0 2.6
18:14 11.5 7.6 77 1001.9 8.3 W 11.4 0.0 2.6
18:15 11.5 7.6 77 1001.8 8.3 W 11.4 0.0 2.6
18:16 11.6 7.7 77 1002.1 11.4 SW 11.4 0.0 2.6
18:17 11.6 7.5 76 1002.1 9.2 W 11.4 0.0 2.6
18:18 11.7 7.6 76 1001.8 9.2 W 11.4 0.0 2.6
18:19 11.7 7.6 76 1001.9 6.9 W 11.4 0.0 2.6
18:20 11.8 7.7 76 1001.8 7.6 W 11.4 0.0 2.6
18:21 11.8 7.7 76 1001.7 8.3 S 11.4 0.0 2.6
18:22 11.9 7.6 75 1001.7 9.8 SW 11.4 0.0 2.6
18:23 11.9 7.4 74 1001.8 9.2 W 11.4 0.0 2.6
18:24 11.9 7.4 74 1001.8 10.7 W 11.4 0.0 2.6
18:25 11.9 7.2 73 1001.9 8.3 WSW 11.4 0.0 2.6
18:26 11.9 7.2 73 1001.7 8.3 W 11.4 0.0 2.6
18:27 11.9 7.2 73 1001.9 6.9 W 10.7 0.0 2.6
18:28 11.9 7.2 73 1001.7 8.3 W 10.7 0.0 2.6
18:29 11.9 7.2 73 1001.9 6.0 W 10.7 0.0 2.6
18:30 11.8 7.1 73 1001.8 6.0 SW 10.7 0.0 2.6
18:31 11.8 7.1 73 1001.8 6.0 SW 10.7 0.0 2.6
18:32 11.8 6.9 72 1001.8 6.9 SW 10.7 0.0 2.6
18:33 11.8 6.9 72 1001.7 8.3 SW 10.7 0.0 2.6
18:34 11.8 6.9 72 1001.7 8.3 SW 10.7 0.0 2.6
18:35 11.7 6.8 72 1002.0 8.3 WSW 8.3 0.0 2.6
18:36 11.7 6.8 72 1001.8 6.9 SW 8.3 0.0 2.6
18:37 11.6 6.7 72 1001.9 7.6 W 8.3 0.0 2.6
18:38 11.6 6.7 72 1002.1 6.9 W 8.3 0.0 2.6
18:39 11.6 6.7 72 1001.9 9.8 S 9.8 0.0 2.6
18:40 11.6 6.7 72 1002.0 6.9 W 9.8 0.0 2.6
18:41 11.5 6.6 72 1002.1 5.4 SW 9.8 0.0 2.6
18:42 11.5 6.6 72 1001.9 8.3 W 9.8 0.0 2.6
18:43 11.5 6.6 72 1002.0 7.6 SW 9.8 0.0 2.6
18:44 11.5 6.6 72 1001.8 8.3 SW 9.8 0.0 2.6
18:45 11.5 6.6 72 1002.0 8.3 W 9.8 0.0 2.6
18:46 11.5 6.6 72 1002.0 9.8 SW 9.8 0.0 2.6
18:47 11.4 6.5 72 1002.1 6.9 SW 9.8 0.0 2.6
18:48 11.4 6.5 72 1002.0 6.0 W 9.8 0.0 2.6
18:49 11.3 6.4 72 1001.7 6.0 SW 9.8 0.0 2.6
18:50 11.3 6.4 72 1002.0 6.0 SW 9.8 0.0 2.6
18:51 11.3 6.4 72 1002.0 6.9 SW 9.8 0.0 2.6
18:52 11.2 6.3 72 1001.9 6.9 W 9.8 0.0 2.6
18:53 11.2 6.3 72 1001.8 7.6 SW 9.8 0.0 2.6
18:54 11.1 6.2 72 1001.8 7.6 W 9.8 0.0 2.6
18:55 11.1 6.2 72 1001.9 7.6 SW 9.8 0.0 2.6
18:56 11.1 6.2 72 1001.9 6.0 SW 7.6 0.0 2.6
18:57 11.0 6.1 72 1001.8 9.2 SW 9.2 0.0 2.6
18:58 10.9 6.1 72 1002.0 9.2 SW 9.2 0.0 2.6
18:59 10.9 6.1 72 1002.0 9.2 SW 9.2 0.0 2.6
19:00 10.9 6.1 72 1001.8 9.2 W 9.2 0.0 2.6
19:01 10.9 6.1 72 1001.9 9.2 W 9.2 0.0 2.6
19:02 10.9 6.1 72 1001.9 9.2 W 9.2 0.0 2.6
19:03 10.7 5.9 72 1001.9 9.2 SW 9.2 0.0 2.6
19:04 10.7 5.9 72 1002.0 6.0 SW 9.2 0.0 2.6
19:05 10.6 5.8 72 1002.0 5.4 W 9.2 0.0 2.6
19:06 10.6 5.8 72 1001.9 6.0 SW 9.2 0.0 2.6
19:07 10.6 5.8 72 1001.8 6.0 NW 9.2 0.0 2.6
19:08 10.5 5.7 72 1001.7 6.0 SW 9.2 0.0 2.6
19:09 10.4 5.6 72 1002.0 6.0 SW 9.2 0.0 2.6
19:10 10.4 5.6 72 1001.9 6.9 WSW 9.2 0.0 2.6
19:11 10.4 5.6 72 1002.0 9.2 SW 9.2 0.0 2.6
19:12 10.4 5.8 73 1001.9 9.2 SW 9.2 0.0 2.6
19:13 10.4 5.8 73 1001.9 5.4 W 9.2 0.0 2.6
19:14 10.3 5.7 73 1001.7 7.6 SW 9.2 0.0 2.6
19:15 10.3 5.7 73 1002.0 6.0 SW 9.2 0.0 2.6
19:16 10.2 5.6 73 1001.7 7.6 SW 9.2 0.0 2.6
19:17 10.2 5.6 73 1001.8 8.3 SW 9.2 0.0 2.6
19:18 10.2 5.6 73 1002.0 6.0 W 9.2 0.0 2.6
19:19 10.2 5.6 73 1002.0 6.9 SW 9.2 0.0 2.6
19:20 10.2 5.6 73 1001.9 6.9 SW 9.2 0.0 2.6
19:21 10.1 5.5 73 1001.7 6.0 WSW 9.2 0.0 2.6
19:22 10.1 5.5 73 1001.8 6.9 W 9.2 0.0 2.6
19:23 10.1 5.5 73 1001.8 6.9 W 8.3 0.0 2.6
19:24 10.0 5.4 73 1001.9 6.9 SW 8.3 0.0 2.6
19:25 10.0 5.4 73 1002.0 6.9 W 8.3 0.0 2.6
19:26 10.0 5.4 73 1001.8 6.0 SW 8.3 0.0 2.6
19:27 10.0 5.4 73 1001.9 6.0 SW 8.3 0.0 2.6
19:28 10.0 5.4 73 1001.9 6.0 SW 8.3 0.0 2.6
19:29 9.9 5.3 73 1002.0 6.0 W 6.9 0.0 2.6
19:31 9.9 5.3 73 1001.8 6.9 SW 8.3 0.0 2.6
19:32 9.8 5.2 73 1002.0 6.0 W 8.3 0.0 2.6
19:33 9.8 5.2 73 1002.0 6.9 SW 8.3 0.0 2.6
19:34 9.8 5.2 73 1001.9 4.5 SW 8.3 0.0 2.6
19:35 9.7 5.1 73 1002.0 3.8 W 8.3 0.0 2.6
19:36 9.7 5.1 73 1002.0 3.8 W 8.3 0.0 2.6
19:37 9.7 5.1 73 1001.9 3.8 SW 8.3 0.0 2.6
19:38 9.7 5.1 73 1001.9 5.4 SW 8.3 0.0 2.6
19:39 9.6 5.0 73 1001.7 5.4 W 8.3 0.0 2.6
19:40 9.6 5.0 73 1002.1 5.4 W 8.3 0.0 2.6
19:41 9.6 5.2 74 1002.0 5.4 SW 6.9 0.0 2.6
19:42 9.6 5.2 74 1001.9 5.4 SW 6.9 0.0 2.6
19:43 9.5 5.1 74 1002.1 5.4 SW 6.9 0.0 2.6
19:44 9.5 5.1 74 1001.8 6.0 W 6.9 0.0 2.6
19:46 9.4 5.0 74 1001.8 4.5 SW 6.0 0.0 2.6
19:47 9.4 5.0 74 1001.9 3.8 W 6.0 0.0 2.6
19:48 9.4 5.0 74 1001.8 3.8 SW 6.0 0.0 2.6
19:49 9.3 4.9 74 1001.9 6.0 SW 6.0 0.0 2.6
19:50 9.3 4.9 74 1001.8 5.4 W 6.0 0.0 2.6
19:51 9.3 4.9 74 1001.8 5.4 W 6.0 0.0 2.6
19:52 9.3 4.9 74 1002.0 6.0 SW 6.0 0.0 2.6
19:53 9.2 4.8 74 1001.9 6.0 W 6.0 0.0 2.6
19:54 9.2 4.8 74 1001.9 4.5 W 6.0 0.0 2.6
19:55 9.2 4.8 74 1002.2 4.5 SW 6.0 0.0 2.6
19:56 9.2 4.8 74 1001.8 3.8 SW 6.0 0.0 2.6
19:57 9.2 4.8 74 1001.9 5.4 SW 6.0 0.0 2.6
19:58 9.1 4.7 74 1001.7 5.4 W 6.0 0.0 2.6
19:59 9.1 4.7 74 1001.8 5.4 W 6.0 0.0 2.6
20:00 9.1 4.7 74 1001.6 5.4 W 6.0 0.0 2.6
20:01 9.1 4.7 74 1001.8 5.4 W 6.0 0.0 2.6
20:02 9.1 4.7 74 1001.9 5.4 W 6.0 0.0 2.6
20:03 9.1 4.7 74 1001.9 5.4 W 5.4 0.0 2.6
20:04 9.1 4.7 74 1001.7 5.4 W 5.4 0.0 2.6
20:05 9.1 4.7 74 1002.0 5.4 W 5.4 0.0 2.6
20:06 9.1 4.7 74 1001.7 5.4 W 5.4 0.0 2.6
20:07 9.0 4.8 75 1001.9 4.5 W 5.4 0.0 2.6
20:08 9.0 4.8 75 1002.1 3.8 W 5.4 0.0 2.6
20:09 9.0 4.8 75 1002.0 4.5 W 5.4 0.0 2.6
20:10 9.0 4.8 75 1002.0 3.8 W 5.4 0.0 2.6
20:11 9.0 4.8 75 1001.8 3.8 W 5.4 0.0 2.6
20:12 8.9 4.7 75 1002.0 3.1 SW 5.4 0.0 2.6
20:13 8.9 4.7 75 1002.2 2.2 SW 5.4 0.0 2.6
20:14 8.9 4.7 75 1002.0 2.2 SW 5.4 0.0 2.6
20:15 8.9 4.7 75 1001.9 3.1 W 5.4 0.0 2.6
20:16 8.9 4.7 75 1001.9 3.8 SW 4.5 0.0 2.6
20:17 8.9 4.7 75 1001.9 2.2 SW 4.5 0.0 2.6
20:18 8.9 4.7 75 1001.9 2.2 SW 4.5 0.0 2.6
20:19 8.9 4.7 75 1002.0 2.2 SW 3.8 0.0 2.6
20:20 8.9 4.7 75 1002.0 2.2 SW 3.8 0.0 2.6
20:21 8.8 4.6 75 1001.9 2.2 SW 3.8 0.0 2.6
20:22 8.8 4.6 75 1001.9 1.6 SW 3.8 0.0 2.6
20:23 8.8 4.6 75 1001.9 2.2 W 3.8 0.0 2.6
20:24 8.8 4.6 75 1002.1 1.6 SW 3.8 0.0 2.6
20:25 8.8 4.6 75 1002.0 1.6 SW 3.8 0.0 2.6
20:26 8.8 4.8 76 1002.1 1.6 NW 3.8 0.0 2.6
20:28 8.8 4.8 76 1002.0 2.2 SW 3.1 0.0 2.6
20:29 8.8 4.8 76 1001.9 1.6 SW 3.1 0.0 2.6
20:30 8.8 4.8 76 1002.0 2.2 SW 3.1 0.0 2.6
20:31 8.8 4.8 76 1001.9 3.1 NW 3.1 0.0 2.6
20:32 8.8 4.8 76 1002.0 6.0 SW 6.0 0.0 2.6
20:33 8.9 4.9 76 1002.0 6.0 SW 6.0 0.0 2.6
20:34 8.9 4.9 76 1002.0 6.0 SW 6.0 0.0 2.6
20:35 8.9 4.9 76 1002.1 10.7 W 10.7 0.0 2.6
20:36 8.9 5.1 77 1002.0 10.7 W 10.7 0.0 2.6
20:37 9.0 5.2 77 1001.9 6.0 W 10.7 0.0 2.6
20:38 9.0 5.2 77 1001.9 6.0 W 10.7 0.0 2.6
20:39 9.0 5.2 77 1001.9 9.2 W 10.7 0.0 2.6
20:40 9.1 5.3 77 1002.0 7.6 SW 10.7 0.0 2.6
20:42 9.2 5.6 78 1002.1 6.9 WSW 10.7 0.0 2.6
20:43 9.2 5.6 78 1002.1 6.9 SW 10.7 0.0 2.6
20:44 9.2 5.6 78 1002.0 6.9 NW 10.7 0.0 2.6
20:45 9.2 5.6 78 1002.0 6.9 W 10.7 0.0 2.6
20:46 9.2 5.6 78 1002.0 6.9 S 10.7 0.0 2.6
20:47 9.3 5.7 78 1002.0 6.0 SW 9.2 0.0 2.6
20:48 9.3 5.7 78 1002.0 6.0 W 9.2 0.0 2.6
20:49 9.3 5.7 78 1002.1 5.4 SW 7.6 0.0 2.6
20:50 9.3 5.7 78 1001.9 7.6 SW 7.6 0.0 2.6
20:51 9.3 5.7 78 1002.0 5.4 W 7.6 0.0 2.6
20:52 9.3 5.7 78 1002.1 7.6 SW 7.6 0.0 2.6
20:53 9.3 5.7 78 1001.9 7.6 W 7.6 0.0 2.6
20:54 9.3 5.7 78 1001.9 6.0 SW 7.6 0.0 2.6
20:56 9.3 5.7 78 1001.9 3.8 SW 7.6 0.0 2.6
20:57 9.2 5.6 78 1002.1 3.1 SW 7.6 0.0 2.6
20:58 9.2 5.6 78 1001.9 3.1 SW 7.6 0.0 2.6
20:59 9.2 5.6 78 1001.8 4.5 SW 7.6 0.0 2.6
21:00 9.2 5.4 77 1002.0 5.4 SW 7.6 0.0 2.6
21:01 9.2 5.4 77 1001.9 5.4 SW 7.6 0.0 2.6
21:02 9.2 5.4 77 1001.9 5.4 SW 7.6 0.0 2.6
21:03 9.2 5.4 77 1001.8 5.4 SW 7.6 0.0 2.6
21:04 9.2 5.4 77 1001.9 5.4 SW 6.0 0.0 2.6
21:05 9.2 5.4 77 1002.0 5.4 SW 5.4 0.0 2.6
21:06 9.2 5.4 77 1001.7 5.4 SW 5.4 0.0 2.6
21:07 9.1 5.3 77 1002.0 3.8 SW 5.4 0.0 2.6
21:08 9.0 5.2 77 1001.9 3.1 SW 5.4 0.0 2.6
21:10 9.0 5.2 77 1002.0 3.1 SW 5.4 0.0 2.6
21:11 9.0 5.0 76 1001.9 3.8 SW 5.4 0.0 2.6
21:12 9.0 5.0 76 1001.8 3.8 S 5.4 0.0 2.6
21:13 8.9 4.9 76 1001.8 3.1 SW 5.4 0.0 2.6
21:14 8.9 4.9 76 1001.8 3.1 S 5.4 0.0 2.6
21:15 8.9 4.9 76 1001.9 3.1 S 5.4 0.0 2.6
21:16 8.9 4.9 76 1001.9 2.2 S 3.8 0.0 2.6
21:17 8.9 4.9 76 1001.9 2.2 SW 3.8 0.0 2.6
21:19 8.9 4.9 76 1001.8 2.2 S 3.8 0.0 2.6
21:20 8.8 4.8 76 1001.9 2.2 SW 3.8 0.0 2.6
21:21 8.8 4.8 76 1001.8 3.1 SW 3.8 0.0 2.6
21:22 8.8 4.8 76 1001.9 2.2 SW 3.8 0.0 2.6
21:23 8.8 4.8 76 1001.9 2.2 SW 3.1 0.0 2.6
21:24 8.8 4.8 76 1002.0 1.6 SW 3.1 0.0 2.6
21:25 8.8 4.8 76 1001.9 1.6 SW 3.1 0.0 2.6
21:26 8.8 4.8 76 1001.9 1.6 SW 3.1 0.0 2.6
21:27 8.8 5.0 77 1001.9 2.2 SW 3.1 0.0 2.6
21:28 8.8 5.0 77 1001.6 1.6 SW 3.1 0.0 2.6
21:29 8.8 5.0 77 1001.7 2.2 S 3.1 0.0 2.6
21:30 8.8 5.0 77 1001.9 2.2 W 3.1 0.0 2.6
21:31 8.8 5.0 77 1001.5 2.2 W 3.1 0.0 2.6
21:32 8.8 5.0 77 1001.6 2.2 SW 3.1 0.0 2.6
21:33 8.8 5.0 77 1001.6 2.2 SW 2.2 0.0 2.6
21:34 8.8 5.0 77 1001.6 1.6 SW 2.2 0.0 2.6
21:35 8.8 5.0 77 1001.6 2.2 SW 2.2 0.0 2.6
21:36 8.8 5.0 77 1001.6 2.2 W 2.2 0.0 2.6
21:37 8.8 5.0 77 1001.3 3.1 S 3.1 0.0 2.6
21:38 8.8 5.0 77 1001.6 2.2 SW 3.1 0.0 2.6
21:39 8.8 5.0 77 1001.3 3.1 SW 3.1 0.0 2.6
21:40 8.8 5.0 77 1001.4 3.1 SW 3.1 0.0 2.6
21:41 8.8 5.0 77 1001.3 2.2 SW 3.1 0.0 2.6
21:42 8.8 5.0 77 1001.6 2.2 SW 3.1 0.0 2.6
21:43 8.8 5.0 77 1001.3 2.2 S 3.1 0.0 2.6
21:44 8.8 5.0 77 1001.5 2.2 SW 3.1 0.0 2.6
21:45 8.8 5.0 77 1001.5 2.2 SW 3.1 0.0 2.6
21:46 8.8 5.0 77 1001.3 3.1 S 3.1 0.0 2.6
21:47 8.8 5.0 77 1001.4 3.1 SW 3.1 0.0 2.6
21:48 8.8 5.0 77 1001.5 3.1 SW 3.1 0.0 2.6
21:49 8.8 5.0 77 1001.7 2.2 SW 3.1 0.0 2.6
21:50 8.8 5.0 77 1001.5 2.2 S 3.1 0.0 2.6
21:51 8.8 5.0 77 1001.5 3.1 SW 3.1 0.0 2.6
21:52 8.8 5.0 77 1001.5 3.1 SW 3.1 0.0 2.6
21:53 8.8 5.0 77 1001.4 2.2 S 3.1 0.0 2.6
21:54 8.8 5.0 77 1001.4 2.2 SW 3.1 0.0 2.6
21:55 8.8 5.0 77 1001.5 1.6 SW 3.1 0.0 2.6
21:56 8.8 5.0 77 1001.5 1.6 SW 3.1 0.0 2.6
21:57 8.8 5.0 77 1001.6 2.2 S 3.1 0.0 2.6
21:58 8.8 5.0 77 1001.4 2.2 SW 3.1 0.0 2.6
21:59 8.8 5.0 77 1001.5 1.6 S 3.1 0.0 2.6
22:00 8.8 5.2 78 1001.4 2.2 SW 3.1 0.0 2.6
22:01 8.8 5.2 78 1001.6 3.1 SW 3.1 0.0 2.6
22:02 8.8 5.2 78 1001.4 3.1 S 3.1 0.0 2.6
22:03 8.8 5.2 78 1001.4 2.2 W 3.1 0.0 2.6
22:04 8.8 5.2 78 1001.2 2.2 SW 3.1 0.0 2.6
22:06 8.8 5.2 78 1001.4 3.8 SW 3.8 0.0 2.6
22:07 8.8 5.2 78 1001.1 3.1 S 3.8 0.0 2.6
22:08 8.8 5.2 78 1001.0 3.1 S 3.8 0.0 2.6
22:09 8.8 5.2 78 1001.2 3.8 SW 3.8 0.0 2.6
22:10 8.8 5.2 78 1001.5 3.8 SW 3.8 0.0 2.6
22:11 8.8 5.2 78 1001.1 3.8 SW 3.8 0.0 2.6
22:12 8.8 5.2 78 1001.2 4.5 W 4.5 0.0 2.6
22:13 8.8 5.2 78 1001.1 4.5 W 4.5 0.0 2.6
22:14 8.8 5.2 78 1001.0 3.8 S 4.5 0.0 2.6
22:15 8.8 5.2 78 1000.9 3.1 SW 4.5 0.0 2.6
22:16 8.8 5.2 78 1000.9 2.2 SW 4.5 0.0 2.6
22:17 8.8 5.2 78 1000.8 1.6 SW 4.5 0.0 2.6
22:18 8.8 5.2 78 1000.8 2.2 SW 4.5 0.0 2.6
22:19 8.8 5.2 78 1001.1 3.8 SW 4.5 0.0 2.6
22:20 8.8 5.2 78 1000.9 3.8 SW 4.5 0.0 2.6
22:22 8.8 5.0 77 1000.7 4.5 S 4.5 0.0 2.6
22:23 8.8 5.2 78 1000.7 4.5 S 4.5 0.0 2.6
22:24 8.8 5.2 78 1000.8 3.8 SW 4.5 0.0 2.6
22:25 8.8 5.2 78 1000.8 3.8 SW 4.5 0.0 2.6
22:26 8.8 5.2 78 1000.6 3.8 SW 4.5 0.0 2.6
22:27 8.8 5.2 78 1000.7 3.8 SW 4.5 0.0 2.6
22:28 8.8 5.2 78 1000.5 3.1 SW 4.5 0.0 2.6
22:29 8.8 5.2 78 1000.5 4.5 S 4.5 0.0 2.6
22:30 8.8 5.2 78 1000.7 3.8 SW 4.5 0.0 2.6
22:31 8.8 5.2 78 1000.5 3.1 S 4.5 0.0 2.6
22:32 8.8 5.2 78 1000.5 3.8 S 4.5 0.0 2.6
22:33 8.8 5.2 78 1000.7 5.4 SW 5.4 0.0 2.6
22:34 8.8 5.2 78 1000.6 3.8 SW 5.4 0.0 2.6
22:35 8.9 5.3 78 1000.8 3.8 W 5.4 0.0 2.6
22:36 8.9 5.3 78 1000.5 3.1 SW 5.4 0.0 2.6
22:37 8.9 5.3 78 1000.6 3.1 SW 5.4 0.0 2.6
22:38 8.8 5.2 78 1000.5 3.8 S 5.4 0.0 2.6
22:40 8.8 5.2 78 1000.2 4.5 S 5.4 0.0 2.6
22:41 8.9 5.3 78 1000.2 3.8 S 5.4 0.0 2.6
22:42 8.9 5.3 78 1000.6 4.5 S 5.4 0.0 2.6
22:43 8.9 5.3 78 1000.5 6.0 SW 6.0 0.0 2.6
22:44 8.9 5.3 78 1000.2 6.0 SW 6.0 0.0 2.6
22:45 8.9 5.3 78 1000.3 3.8 SW 6.0 0.0 2.6
22:46 8.9 5.3 78 1000.3 3.8 S 6.0 0.0 2.6
22:47 9.0 5.4 78 1000.1 4.5 SW 6.0 0.0 2.6
22:48 9.0 5.4 78 1000.0 4.5 SW 6.0 0.0 2.6
22:49 9.0 5.4 78 1000.1 3.8 SW 6.0 0.0 2.6
22:50 9.0 5.4 78 1000.1 3.8 SW 6.0 0.0 2.6
22:51 9.0 5.4 78 1000.2 3.8 W 6.0 0.0 2.6
22:52 9.0 5.4 78 1000.1 3.8 SW 6.0 0.0 2.6
22:53 9.0 5.4 78 1000.1 5.4 SW 6.0 0.0 2.6
22:54 9.1 5.5 78 1000.1 3.8 SSW 6.0 0.0 2.6
22:55 9.1 5.5 78 1000.2 4.5 S 5.4 0.0 2.6
22:56 9.1 5.5 78 1000.1 4.5 SW 5.4 0.0 2.6
22:58 9.1 5.5 78 1000.0 5.4 SW 5.4 0.0 2.6
22:59 9.2 5.6 78 999.9 5.4 SW 5.4 0.0 2.6
23:00 9.2 5.6 78 1000.2 4.5 SW 5.4 0.0 2.6
23:01 9.2 5.6 78 1000.0 4.5 SW 5.4 0.0 2.6
23:02 9.2 5.6 78 1000.0 4.5 SW 5.4 0.0 2.6
23:03 9.2 5.6 78 999.8 4.5 SW 5.4 0.0 2.6
23:04 9.2 5.6 78 999.7 4.5 SW 5.4 0.0 2.6
23:05 9.2 5.6 78 999.9 4.5 SW 5.4 0.0 2.6
23:06 9.2 5.6 78 1000.0 4.5 SW 5.4 0.0 2.6
23:07 9.3 5.8 79 999.9 3.1 SW 5.4 0.0 2.6
23:08 9.4 5.9 79 999.8 4.5 SW 5.4 0.0 2.6
23:09 9.4 5.9 79 999.7 5.4 SW 5.4 0.0 2.6
23:10 9.4 5.9 79 999.9 5.4 SW 5.4 0.0 2.6
23:11 9.5 6.0 79 999.8 6.0 SE 6.0 0.0 2.6
23:12 9.5 6.0 79 999.6 5.4 S 6.0 0.0 2.6
23:13 9.6 6.3 80 999.5 10.7 S 10.7 0.0 2.6
23:15 9.7 6.4 80 999.4 7.6 SW 10.7 0.0 2.6
23:16 9.7 6.4 80 999.5 6.0 S 10.7 0.0 2.6
23:18 9.8 6.5 80 999.6 6.0 SW 10.7 0.0 2.6
23:19 9.9 6.6 80 999.3 5.4 S 10.7 0.0 2.6
23:20 9.9 6.6 80 999.4 5.4 SW 10.7 0.0 2.6
23:21 9.9 6.6 80 999.5 6.9 SW 10.7 0.0 2.6
23:22 10.0 6.7 80 999.5 6.9 SW 10.7 0.0 2.6
23:23 10.0 6.7 80 999.5 8.3 S 10.7 0.0 2.6
23:24 10.0 6.7 80 999.2 9.2 S 9.8 0.0 2.6
23:25 10.1 6.8 80 999.3 7.6 SW 9.2 0.0 2.6
23:26 10.1 6.6 79 999.4 7.6 S 9.2 0.0 2.6
23:27 10.1 6.6 79 999.4 8.3 SW 9.2 0.0 2.6
23:28 10.1 6.6 79 999.3 8.3 S 9.2 0.0 2.6
23:29 10.2 6.7 79 999.3 8.3 W 9.2 0.0 2.6
23:30 10.2 6.7 79 999.2 9.2 S 9.2 0.0 2.6
23:31 10.2 6.7 79 999.3 9.2 SW 9.2 0.0 2.6
23:32 10.2 6.7 79 999.4 8.3 SW 9.2 0.0 2.6
23:33 10.3 6.6 78 999.3 9.8 S 9.8 0.0 2.6
23:34 10.3 6.6 78 999.3 9.2 SW 9.8 0.0 2.6
23:35 10.3 6.6 78 999.3 8.3 S 9.8 0.0 2.6
23:36 10.4 6.7 78 999.5 11.4 SW 11.4 0.0 2.6
23:37 10.4 6.7 78 999.4 11.4 SW 11.4 0.0 2.6
23:38 10.4 6.7 78 999.3 11.4 SW 11.4 0.0 2.6
23:39 10.5 6.6 77 999.2 9.8 W 11.4 0.0 2.6
23:40 10.5 6.6 77 999.4 11.4 S 11.4 0.0 2.6
23:42 10.6 6.7 77 999.3 11.4 SW 13.0 0.0 2.6
23:43 10.7 6.8 77 999.2 9.2 SW 13.0 0.0 2.6
23:44 10.7 6.8 77 999.3 12.1 SW 13.0 0.0 2.6
23:45 10.7 6.6 76 999.2 13.6 SW 13.6 0.0 2.6
23:46 10.8 6.7 76 999.3 9.8 SW 13.6 0.0 2.6
23:47 10.8 6.7 76 999.3 10.7 SW 13.6 0.0 2.7
23:48 10.8 6.7 76 999.2 10.7 SW 13.6 0.8 2.7
23:49 10.8 6.7 76 999.3 12.1 SSW 13.6 0.8 2.7
23:50 10.9 6.8 76 999.2 13.0 S 13.6 1.5 2.8
23:51 10.9 6.8 76 999.2 11.4 SW 13.6 2.3 2.8
23:52 10.9 6.8 76 999.1 9.2 SW 13.6 2.3 2.9
23:53 10.9 6.8 76 999.0 12.1 SW 13.6 3.0 3.0
23:54 11.0 6.9 76 999.0 10.7 SW 13.6 4.5 3.1
23:55 11.0 6.9 76 999.0 10.7 S 13.6 5.3 3.2
23:56 11.0 6.9 76 999.1 9.2 S 13.6 6.0 3.4
23:57 11.0 6.9 76 999.0 10.7 SW 13.0 7.6 3.5
23:58 11.0 6.9 76 998.8 8.3 SW 13.0 7.6 3.8
23:59 11.0 7.1 77 999.1 7.6 SW 13.0 8.3 4.0

 

 

UK - WEATHER STATION TOPSITES - UK World Weather Websites

Copyright © Carnkie Weather 2009 - 2020.